GREAT EAST LAKE DAM: From 04/19/2019 00:00 to 06/20/2019 00:00

Date LAKE ELEVATION [FT] PRECIPITATION INCREMENT [IN] PRECIPITATION TOTAL [IN] AIR TEMPERATURE [F] RELATIVE HUMIDITY [%]
06/18/2019 12:00 574.37 0.00 -- 66.9 100.0
06/18/2019 11:00 574.37 0.00 -- 66.1 100.0
06/18/2019 10:00 574.36 0.00 -- 65.8 100.0
06/18/2019 09:00 574.37 0.00 -- 65.9 100.0
06/18/2019 08:00 574.37 0.00 -- 66.0 100.0
06/18/2019 07:00 574.36 0.00 -- 66.0 100.0
06/18/2019 06:00 574.36 0.00 -- 65.5 100.0
06/18/2019 05:00 574.37 0.00 -- 65.4 100.0
06/18/2019 04:00 574.37 0.00 -- 63.3 100.0
06/18/2019 03:00 574.36 0.00 -- 60.5 100.0
06/18/2019 02:00 574.36 0.00 -- 58.1 100.0
06/18/2019 01:00 574.37 0.00 -- 56.7 100.0
06/18/2019 00:00 574.37 0.00 -- 56.7 100.0
06/17/2019 23:00 574.37 0.00 -- 54.9 100.0
06/17/2019 22:00 574.37 0.00 -- 55.6 100.0
06/17/2019 21:00 574.37 0.00 -- 56.9 100.0
06/17/2019 20:00 574.37 0.00 -- 57.9 100.0
06/17/2019 19:00 574.38 0.00 -- 58.1 100.0
06/17/2019 18:00 574.38 0.00 -- 59.1 100.0
06/17/2019 17:00 574.37 0.00 -- 61.6 100.0
06/17/2019 16:00 574.37 0.00 -- 66.1 100.0
06/17/2019 15:00 574.38 0.00 -- 69.0 100.0
06/17/2019 14:00 574.37 0.00 -- 74.2 100.0
06/17/2019 13:00 574.37 0.00 -- 75.3 100.0
06/17/2019 12:00 574.39 0.00 -- 76.3 100.0
06/17/2019 11:00 574.39 0.00 -- 75.4 100.0
06/17/2019 10:00 574.39 0.00 -- 73.6 100.0
06/17/2019 09:00 574.40 0.00 -- 72.4 100.0
06/17/2019 08:00 574.38 0.00 -- 71.1 100.0
06/17/2019 07:00 574.39 0.00 -- 68.7 100.0
06/17/2019 06:00 574.38 0.00 -- 66.5 100.0
06/17/2019 05:00 574.40 0.00 -- 63.8 100.0
06/17/2019 04:00 574.38 0.00 -- 61.1 100.0
06/17/2019 03:00 574.40 0.00 -- 59.4 100.0
06/17/2019 02:00 574.40 0.01 -- 58.7 100.0
06/17/2019 01:00 574.38 0.00 -- 58.7 100.0
06/17/2019 00:00 574.39 0.00 0.01 59.7 100.0
06/16/2019 23:00 574.39 0.00 -- 60.5 100.0
06/16/2019 22:00 574.40 0.00 -- 60.9 100.0
06/16/2019 21:00 574.40 0.02 -- 61.8 100.0
06/16/2019 20:00 574.39 0.00 -- 62.4 100.0
06/16/2019 19:00 574.39 0.01 -- 62.7 100.0
06/16/2019 18:00 574.40 0.00 -- 62.9 100.0
06/16/2019 17:00 574.39 0.00 -- 64.0 100.0
06/16/2019 16:00 574.39 0.01 -- 64.6 100.0
06/16/2019 15:00 574.39 0.00 -- 65.4 100.0
06/16/2019 14:00 574.40 0.00 -- 65.3 100.0
06/16/2019 13:00 574.38 0.02 -- 65.8 100.0
06/16/2019 12:00 574.39 0.01 -- 65.4 100.0
06/16/2019 11:00 574.40 0.04 -- 66.0 100.0
06/16/2019 10:00 574.39 0.03 -- 65.7 100.0
06/16/2019 09:00 574.39 0.02 -- 66.5 100.0
06/16/2019 08:00 574.38 0.01 -- 66.5 100.0
06/16/2019 07:00 574.39 0.00 -- 67.4 100.0
06/16/2019 06:00 574.39 0.00 -- 67.6 100.0
06/16/2019 05:00 574.39 0.00 -- 67.2 100.0
06/16/2019 04:00 574.40 0.00 -- 66.7 100.0
06/16/2019 03:00 574.39 0.00 -- 65.2 100.0
06/16/2019 02:00 574.39 0.00 -- 64.4 100.0
06/16/2019 01:00 574.39 0.00 -- 63.6 100.0
06/16/2019 00:00 574.39 0.00 0.17 64.7 100.0
06/15/2019 23:00 574.40 0.00 -- 64.9 100.0
06/15/2019 22:00 574.37 0.00 -- 67.2 100.0
06/15/2019 21:00 574.38 0.00 -- 69.7 100.0
06/15/2019 20:00 574.39 0.00 -- 69.8 100.0
06/15/2019 19:00 574.38 0.00 -- 69.1 100.0
06/15/2019 18:00 574.40 0.00 -- 69.7 100.0
06/15/2019 17:00 574.40 0.00 -- 70.5 100.0
06/15/2019 16:00 574.39 0.00 -- 71.3 100.0
06/15/2019 15:00 574.40 0.00 -- 73.4 100.0
06/15/2019 14:00 574.40 0.00 -- 75.8 100.0
06/15/2019 13:00 574.38 0.00 -- 77.8 100.0
06/15/2019 12:00 574.40 0.00 -- 77.7 100.0
06/15/2019 11:00 574.38 0.00 -- 78.7 100.0
06/15/2019 10:00 574.41 0.00 -- 76.8 100.0
06/15/2019 09:00 574.42 0.00 -- 74.5 100.0
06/15/2019 08:00 574.40 0.00 -- 72.0 100.0
06/15/2019 07:00 574.40 0.00 -- 69.8 100.0
06/15/2019 06:00 574.39 0.00 -- 63.6 100.0
06/15/2019 05:00 574.40 0.00 -- 64.2 100.0
06/15/2019 04:00 574.42 0.00 -- 61.0 100.0
06/15/2019 03:00 574.43 0.00 -- 58.4 100.0
06/15/2019 02:00 574.42 0.00 -- 56.8 100.0
06/15/2019 01:00 574.41 0.00 -- 52.6 100.0
06/15/2019 00:00 574.41 0.00 0.00 53.3 100.0
06/14/2019 23:00 574.42 0.00 -- 57.0 100.0
06/14/2019 22:00 574.43 0.00 -- 56.8 100.0
06/14/2019 21:00 574.43 0.00 -- 57.1 100.0
06/14/2019 20:00 574.41 0.00 -- 57.6 100.0
06/14/2019 19:00 574.42 0.00 -- 58.2 100.0
06/14/2019 18:00 574.43 0.00 -- 58.0 100.0
06/14/2019 17:00 574.43 0.00 -- 58.6 100.0
06/14/2019 16:00 574.43 0.00 -- 60.3 100.0
06/14/2019 15:00 574.41 0.00 -- 62.0 100.0
06/14/2019 14:00 574.43 0.00 -- 62.7 100.0
06/14/2019 13:00 574.43 0.00 -- 65.8 100.0
06/14/2019 12:00 574.43 0.00 -- 64.5 100.0
06/14/2019 11:00 574.44 0.02 -- 67.4 100.0
06/14/2019 10:00 574.44 0.00 -- 67.1 100.0
06/14/2019 09:00 574.44 0.00 -- 65.6 100.0
06/14/2019 08:00 574.44 0.00 -- 65.7 100.0
06/14/2019 07:00 574.43 0.00 -- 62.6 100.0
06/14/2019 06:00 574.45 0.00 -- 59.5 100.0
06/14/2019 05:00 574.45 0.00 -- 56.9 100.0
06/14/2019 04:00 574.43 0.00 -- 54.6 100.0
06/14/2019 03:00 574.44 0.00 -- 52.8 100.0
06/14/2019 02:00 574.44 0.00 -- 51.0 100.0
06/14/2019 01:00 574.45 0.00 -- 49.8 100.0
06/14/2019 00:00 574.42 0.00 0.02 49.4 100.0
06/13/2019 23:00 574.44 0.00 -- 48.4 100.0
06/13/2019 22:00 574.43 0.00 -- 46.8 100.0
06/13/2019 21:00 574.44 0.00 -- 47.8 100.0
06/13/2019 20:00 574.44 0.00 -- 48.3 100.0
06/13/2019 19:00 574.45 0.00 -- 49.6 100.0
06/13/2019 18:00 574.45 0.00 -- 51.2 100.0
06/13/2019 17:00 574.44 0.00 -- 50.7 100.0
06/13/2019 16:00 574.45 0.00 -- 50.1 100.0
06/13/2019 15:00 574.45 0.01 -- 50.2 100.0
06/13/2019 14:00 574.46 0.01 -- 50.3 100.0
06/13/2019 13:00 574.45 0.09 -- 49.8 100.0
06/13/2019 12:00 574.41 0.03 -- 48.8 100.0
06/13/2019 11:00 574.46 0.06 -- 49.3 100.0
06/13/2019 10:00 574.43 0.08 -- 49.2 100.0
06/13/2019 09:00 574.45 0.06 -- 51.8 100.0
06/13/2019 08:00 574.42 0.01 -- 54.3 100.0
06/13/2019 07:00 574.42 0.00 -- 55.1 100.0
06/13/2019 06:00 574.43 0.02 -- 54.5 100.0
06/13/2019 05:00 574.43 0.01 -- 54.5 100.0
06/13/2019 04:00 574.41 0.00 -- 56.1 100.0
06/13/2019 03:00 574.41 0.00 -- 57.0 100.0
06/13/2019 02:00 574.42 0.00 -- 54.1 100.0
06/13/2019 01:00 574.42 0.00 -- 55.0 100.0
06/13/2019 00:00 574.42 0.00 0.38 54.3 100.0
06/12/2019 23:00 574.41 0.00 -- 54.3 100.0
06/12/2019 22:00 574.42 0.00 -- 54.4 100.0
06/12/2019 21:00 574.43 0.00 -- 56.0 100.0
06/12/2019 20:00 574.42 0.00 -- 57.2 100.0
06/12/2019 19:00 574.43 0.00 -- 59.3 100.0
06/12/2019 18:00 574.43 0.00 -- 60.1 100.0
06/12/2019 17:00 574.43 0.00 -- 61.3 100.0
06/12/2019 16:00 574.42 0.00 -- 63.8 100.0
06/12/2019 15:00 574.42 0.00 -- 67.2 100.0
06/12/2019 14:00 574.43 0.00 -- 70.2 100.0
06/12/2019 13:00 574.42 0.00 -- 74.2 100.0
06/12/2019 12:00 574.43 0.00 -- 76.4 100.0
06/12/2019 11:00 574.44 0.00 -- 75.2 100.0
06/12/2019 10:00 574.44 0.00 -- 73.4 100.0
06/12/2019 09:00 574.44 0.00 -- 72.2 100.0
06/12/2019 08:00 574.44 0.00 -- 68.7 100.0
06/12/2019 07:00 574.44 0.00 -- 68.1 100.0
06/12/2019 06:00 574.44 0.00 -- 65.5 100.0
06/12/2019 05:00 574.42 0.00 -- 63.1 100.0
06/12/2019 04:00 574.43 0.00 -- 59.1 100.0
06/12/2019 03:00 574.44 0.00 -- 53.7 100.0
06/12/2019 02:00 574.46 0.00 -- 54.0 100.0
06/12/2019 01:00 574.45 0.00 -- 53.6 100.0
06/12/2019 00:00 574.44 0.00 0.00 50.7 100.0
06/11/2019 23:00 574.43 0.00 -- 49.5 100.0
06/11/2019 22:00 574.45 0.00 -- 50.4 100.0
06/11/2019 21:00 574.42 0.00 -- 51.7 100.0
06/11/2019 20:00 574.44 0.00 -- 56.5 100.0
06/11/2019 19:00 574.44 0.00 -- 58.1 100.0
06/11/2019 18:00 574.43 0.00 -- 58.3 100.0
06/11/2019 17:00 574.47 0.00 -- 61.0 100.0
06/11/2019 16:00 574.46 0.00 -- 62.9 100.0
06/11/2019 15:00 574.45 0.00 -- 64.4 100.0
06/11/2019 14:00 574.45 0.00 -- 65.6 100.0
06/11/2019 13:00 574.45 0.00 -- 68.1 100.0
06/11/2019 12:00 574.47 0.00 -- 70.3 100.0
06/11/2019 11:00 574.46 0.00 -- 68.8 100.0
06/11/2019 10:00 574.45 0.00 -- 68.6 100.0
06/11/2019 09:00 574.43 0.00 -- 67.1 100.0
06/11/2019 08:00 574.45 0.00 -- 65.9 100.0
06/11/2019 07:00 574.45 0.01 -- 64.5 100.0
06/11/2019 06:00 574.44 0.01 -- 63.2 100.0
06/11/2019 05:00 574.44 0.02 -- 62.3 100.0
06/11/2019 04:00 574.43 0.27 -- 61.6 100.0
06/11/2019 03:00 574.40 0.12 -- 61.8 100.0
06/11/2019 02:00 574.40 0.02 -- 61.7 100.0
06/11/2019 01:00 574.39 0.09 -- 61.0 100.0
06/11/2019 00:00 574.38 0.17 0.54 60.4 100.0
06/10/2019 23:00 574.38 0.18 -- 60.0 100.0
06/10/2019 22:00 574.36 0.04 -- 59.6 100.0
06/10/2019 21:00 574.37 0.02 -- 60.0 100.0
06/10/2019 20:00 574.38 0.00 -- 61.5 100.0
06/10/2019 19:00 574.37 0.00 -- 62.6 100.0
06/10/2019 18:00 574.38 0.00 -- 63.1 100.0
06/10/2019 17:00 574.36 0.00 -- 63.4 100.0
06/10/2019 16:00 574.37 0.00 -- 65.5 100.0
06/10/2019 15:00 574.37 0.00 -- 68.2 100.0
06/10/2019 14:00 574.37 0.00 -- 72.0 100.0
06/10/2019 13:00 574.37 0.00 -- 74.5 100.0
06/10/2019 12:00 574.37 0.00 -- 79.4 100.0
06/10/2019 11:00 574.38 0.00 -- 79.3 100.0
06/10/2019 10:00 574.39 0.00 -- 78.1 100.0
06/10/2019 09:00 574.37 0.00 -- 79.7 100.0
06/10/2019 08:00 574.38 0.00 -- 79.7 100.0
06/10/2019 07:00 574.39 0.00 -- 77.4 100.0
06/10/2019 06:00 574.38 0.00 -- 75.7 100.0
06/10/2019 05:00 574.39 0.00 -- 70.5 100.0
06/10/2019 04:00 574.39 0.00 -- 65.1 100.0
06/10/2019 03:00 574.39 0.00 -- 59.3 100.0
06/10/2019 02:00 574.38 0.00 -- 55.5 100.0
06/10/2019 01:00 574.39 0.00 -- 54.0 100.0
06/10/2019 00:00 574.38 0.00 0.41 53.8 100.0
06/09/2019 23:00 574.39 0.00 -- 55.1 100.0
06/09/2019 22:00 574.39 0.00 -- 56.5 100.0
06/09/2019 21:00 574.40 0.00 -- 58.9 100.0
06/09/2019 20:00 574.39 0.00 -- 60.8 100.0
06/09/2019 19:00 574.39 0.00 -- 63.1 100.0
06/09/2019 18:00 574.38 0.00 -- 64.5 100.0
06/09/2019 17:00 574.39 0.00 -- 66.3 100.0
06/09/2019 16:00 574.39 0.00 -- 68.7 100.0
06/09/2019 15:00 574.39 0.00 -- 72.1 100.0
06/09/2019 14:00 574.40 0.00 -- 76.3 100.0
06/09/2019 13:00 574.40 0.00 -- 78.9 100.0
06/09/2019 12:00 574.40 0.00 -- 79.8 100.0
06/09/2019 11:00 574.39 0.00 -- 79.6 100.0
06/09/2019 10:00 574.40 0.00 -- 78.6 100.0
06/09/2019 09:00 574.40 0.00 -- 74.6 100.0
06/09/2019 08:00 574.40 0.00 -- 71.7 100.0
06/09/2019 07:00 574.41 0.00 -- 69.9 100.0
06/09/2019 06:00 574.41 0.00 -- 68.7 100.0
06/09/2019 05:00 574.40 0.00 -- 63.5 100.0
06/09/2019 04:00 574.41 0.00 -- 59.2 100.0
06/09/2019 03:00 574.41 0.00 -- 54.4 100.0
06/09/2019 02:00 574.41 0.00 -- 50.9 100.0
06/09/2019 01:00 574.41 0.00 -- 49.2 100.0
06/09/2019 00:00 574.42 0.00 0.00 49.5 100.0
06/08/2019 23:00 574.42 0.00 -- 50.5 100.0
06/08/2019 22:00 574.42 0.00 -- 51.1 100.0
06/08/2019 21:00 574.42 0.00 -- 52.5 100.0
06/08/2019 20:00 574.41 0.00 -- 53.1 100.0
06/08/2019 19:00 574.41 0.00 -- 53.2 100.0
06/08/2019 18:00 574.42 0.00 -- 55.2 100.0
06/08/2019 17:00 574.42 0.00 -- 58.2 100.0
06/08/2019 16:00 574.42 0.00 -- 63.3 100.0
06/08/2019 15:00 574.42 0.00 -- 67.7 100.0
06/08/2019 14:00 574.42 0.00 -- 72.6 100.0
06/08/2019 13:00 574.41 0.00 -- 76.7 100.0
06/08/2019 12:00 574.43 0.00 -- 76.6 100.0
06/08/2019 11:00 574.39 0.00 -- 75.8 100.0
06/08/2019 10:00 574.43 0.00 -- 74.1 100.0
06/08/2019 09:00 574.44 0.00 -- 72.2 100.0
06/08/2019 08:00 574.42 0.00 -- 70.3 100.0
06/08/2019 07:00 574.43 0.00 -- 69.6 100.0
06/08/2019 06:00 574.43 0.00 -- 66.8 100.0
06/08/2019 05:00 574.44 0.00 -- 65.5 100.0
06/08/2019 04:00 574.43 0.00 -- 62.8 100.0
06/08/2019 03:00 574.43 0.00 -- 56.4 100.0
06/08/2019 02:00 574.44 0.00 -- 52.5 100.0
06/08/2019 01:00 574.43 0.00 -- 51.7 100.0
06/08/2019 00:00 574.43 0.00 0.00 55.3 100.0
06/07/2019 23:00 574.45 0.00 -- 53.3 100.0
06/07/2019 22:00 574.42 0.00 -- 55.6 100.0
06/07/2019 21:00 574.44 0.00 -- 58.4 100.0
06/07/2019 20:00 574.46 0.00 -- 58.3 100.0
06/07/2019 19:00 574.44 0.00 -- 59.3 100.0
06/07/2019 18:00 574.44 0.00 -- 62.1 100.0
06/07/2019 17:00 574.44 0.00 -- 64.8 100.0
06/07/2019 16:00 574.43 0.00 -- 67.3 100.0
06/07/2019 15:00 574.44 0.00 -- 69.4 100.0
06/07/2019 14:00 574.44 0.00 -- 75.2 100.0
06/07/2019 13:00 574.45 0.00 -- 77.0 100.0
06/07/2019 12:00 574.42 0.00 -- 76.9 100.0
06/07/2019 11:00 574.40 0.00 -- 76.9 100.0
06/07/2019 10:00 574.43 0.00 -- 74.9 100.0
06/07/2019 09:00 574.45 0.00 -- 73.0 100.0
06/07/2019 08:00 574.44 0.00 -- 71.3 100.0
06/07/2019 07:00 574.45 0.00 -- 69.8 100.0
06/07/2019 06:00 574.45 0.00 -- 66.7 100.0
06/07/2019 05:00 574.45 0.00 -- 63.7 100.0
06/07/2019 04:00 574.45 0.00 -- 59.5 100.0
06/07/2019 03:00 574.45 0.00 -- 53.6 100.0
06/07/2019 02:00 574.45 0.00 -- 50.4 100.0
06/07/2019 01:00 574.46 0.00 -- 48.3 100.0
06/07/2019 00:00 574.45 0.00 0.00 49.1 100.0
06/06/2019 23:00 574.45 0.00 -- 50.7 100.0
06/06/2019 22:00 574.45 0.00 -- 50.6 100.0
06/06/2019 21:00 574.46 0.00 -- 52.5 100.0
06/06/2019 20:00 574.45 0.00 -- 53.2 100.0
06/06/2019 19:00 574.45 0.00 -- 54.9 100.0
06/06/2019 18:00 574.45 0.00 -- 56.5 100.0
06/06/2019 17:00 574.45 0.00 -- 58.9 100.0
06/06/2019 16:00 574.45 0.00 -- 63.5 100.0
06/06/2019 15:00 574.45 0.00 -- 66.6 100.0
06/06/2019 14:00 574.45 0.00 -- 72.2 100.0
06/06/2019 13:00 574.45 0.00 -- 74.3 100.0
06/06/2019 12:00 574.44 0.00 -- 73.4 100.0
06/06/2019 11:00 574.46 0.00 -- 73.2 100.0
06/06/2019 10:00 574.44 0.00 -- 71.4 100.0
06/06/2019 09:00 574.45 0.00 -- 69.6 100.0
06/06/2019 08:00 574.44 0.00 -- 69.9 100.0
06/06/2019 07:00 574.45 0.00 -- 67.8 100.0
06/06/2019 06:00 574.44 0.00 -- 63.6 100.0
06/06/2019 05:00 574.45 0.00 -- 60.4 100.0
06/06/2019 04:00 574.43 0.00 -- 58.4 100.0
06/06/2019 03:00 574.44 0.02 -- 57.0 100.0
06/06/2019 02:00 574.43 0.02 -- 56.7 100.0
06/06/2019 01:00 574.40 0.19 -- 56.0 100.0
06/06/2019 00:00 574.42 0.05 0.23 56.0 100.0
06/05/2019 23:00 574.41 0.05 -- 56.0 100.0
06/05/2019 22:00 574.42 0.02 -- 56.2 100.0
06/05/2019 21:00 574.39 0.07 -- 56.3 100.0
06/05/2019 20:00 574.38 0.08 -- 56.3 100.0
06/05/2019 19:00 574.38 0.03 -- 56.9 100.0
06/05/2019 18:00 574.41 0.49 -- 57.1 100.0
06/05/2019 17:00 574.33 0.00 -- 59.3 100.0
06/05/2019 16:00 574.32 0.00 -- 59.6 100.0
06/05/2019 15:00 574.33 0.00 -- 66.6 100.0
06/05/2019 14:00 574.33 0.00 -- 66.9 100.0
06/05/2019 13:00 574.33 0.00 -- 66.0 100.0
06/05/2019 12:00 574.34 0.00 -- 65.2 100.0
06/05/2019 11:00 574.34 0.00 -- 64.6 100.0
06/05/2019 10:00 574.35 0.00 -- 63.4 100.0
06/05/2019 09:00 574.34 0.00 -- 62.4 100.0
06/05/2019 08:00 574.34 0.00 -- 61.4 100.0
06/05/2019 07:00 574.34 0.00 -- 59.8 100.0
06/05/2019 06:00 574.34 0.00 -- 56.0 100.0
06/05/2019 05:00 574.34 0.01 -- 53.0 100.0
06/05/2019 04:00 574.33 0.01 -- 51.4 100.0
06/05/2019 03:00 574.32 0.02 -- 50.6 100.0
06/05/2019 02:00 574.37 0.00 -- 49.9 100.0
06/05/2019 01:00 574.34 0.02 -- 49.1 100.0
06/05/2019 00:00 574.32 0.05 0.85 48.8 100.0
06/04/2019 23:00 574.33 0.03 -- 49.0 100.0
06/04/2019 22:00 574.33 0.03 -- 49.4 100.0
06/04/2019 21:00 574.29 0.00 -- 51.9 100.0
06/04/2019 20:00 574.34 0.00 -- 53.9 100.0
06/04/2019 19:00 574.33 0.00 -- 54.9 100.0
06/04/2019 18:00 574.32 0.00 -- 56.4 100.0
06/04/2019 17:00 574.32 0.00 -- 58.1 100.0
06/04/2019 16:00 574.32 0.00 -- 59.8 100.0
06/04/2019 15:00 574.32 0.00 -- 61.3 100.0
06/04/2019 14:00 574.33 0.00 -- 61.7 100.0
06/04/2019 13:00 574.33 0.00 -- 62.7 100.0
06/04/2019 12:00 574.36 0.00 -- 63.5 100.0
06/04/2019 11:00 574.37 0.00 -- 61.8 100.0
06/04/2019 10:00 574.30 0.00 -- 61.6 100.0
06/04/2019 09:00 574.35 0.00 -- 60.8 100.0
06/04/2019 08:00 574.42 0.00 -- 58.8 100.0
06/04/2019 07:00 574.34 0.00 -- 57.7 100.0
06/04/2019 06:00 574.32 0.00 -- 57.1 100.0
06/04/2019 05:00 574.35 0.00 -- 55.3 100.0
06/04/2019 04:00 574.33 0.00 -- 53.0 100.0
06/04/2019 03:00 574.34 0.00 -- 50.9 100.0
06/04/2019 02:00 574.37 0.00 -- 48.6 100.0
06/04/2019 01:00 574.34 0.00 -- 46.4 100.0
06/04/2019 00:00 574.34 0.00 0.11 48.7 100.0
06/03/2019 23:00 574.36 0.00 -- 49.4 100.0
06/03/2019 22:00 574.36 0.00 -- 49.5 100.0
06/03/2019 21:00 574.33 0.00 -- 50.1 100.0
06/03/2019 20:00 574.35 0.00 -- 50.1 100.0
06/03/2019 19:00 574.37 0.00 -- 50.5 100.0
06/03/2019 18:00 574.35 0.00 -- 51.2 100.0
06/03/2019 17:00 574.35 0.00 -- 52.2 100.0
06/03/2019 16:00 574.40 0.00 -- 53.7 100.0
06/03/2019 15:00 574.36 0.00 -- 55.5 100.0
06/03/2019 14:00 574.38 0.00 -- 56.6 100.0
06/03/2019 13:00 574.35 0.00 -- 59.0 100.0
06/03/2019 12:00 574.37 0.00 -- 60.3 100.0
06/03/2019 11:00 574.35 0.00 -- 61.9 100.0
06/03/2019 10:00 574.29 0.00 -- 63.0 100.0
06/03/2019 09:00 574.32 0.00 -- 62.7 100.0
06/03/2019 08:00 574.39 0.00 -- 61.7 100.0
06/03/2019 07:00 574.37 0.00 -- 60.5 100.0
06/03/2019 06:00 574.39 0.00 -- 58.5 100.0
06/03/2019 05:00 574.37 0.00 -- 56.0 100.0
06/03/2019 04:00 574.37 0.00 -- 54.8 100.0
06/03/2019 03:00 574.37 0.00 -- 52.8 100.0
06/03/2019 02:00 574.37 0.00 -- 50.1 100.0
06/03/2019 01:00 574.38 0.00 -- 50.4 100.0
06/03/2019 00:00 574.38 0.00 0.00 50.5 100.0
06/02/2019 23:00 574.37 0.00 -- 52.9 100.0
06/02/2019 22:00 574.37 0.00 -- 55.2 100.0
06/02/2019 21:00 574.38 0.00 -- 54.0 100.0
06/02/2019 20:00 574.38 0.01 -- 53.3 100.0
06/02/2019 19:00 574.37 0.01 -- 53.4 100.0
06/02/2019 18:00 574.37 0.00 -- 53.6 100.0
06/02/2019 17:00 574.39 0.00 -- 54.4 100.0
06/02/2019 16:00 574.35 0.00 -- 56.1 100.0
06/02/2019 15:00 574.35 0.07 -- 58.4 100.0
06/02/2019 14:00 574.37 0.10 -- 59.3 100.0
06/02/2019 13:00 574.37 0.00 -- 61.8 100.0
06/02/2019 12:00 574.36 0.00 -- 64.2 100.0
06/02/2019 11:00 574.36 0.00 -- 62.2 100.0
06/02/2019 10:00 574.37 0.00 -- 59.4 100.0
06/02/2019 09:00 574.37 0.00 -- 57.2 100.0
06/02/2019 08:00 574.37 0.00 -- 56.0 100.0
06/02/2019 07:00 574.37 0.00 -- 55.5 100.0
06/02/2019 06:00 574.36 0.00 -- 53.4 100.0
06/02/2019 05:00 574.36 0.00 -- 53.1 100.0
06/02/2019 04:00 574.38 0.00 -- 52.7 100.0
06/02/2019 03:00 574.37 0.00 -- 51.6 100.0
06/02/2019 02:00 574.35 0.00 -- 50.9 100.0
06/02/2019 01:00 574.35 0.00 -- 50.9 100.0
06/02/2019 00:00 574.37 0.00 0.19 51.4 100.0
06/01/2019 23:00 574.39 0.00 -- 51.4 100.0
06/01/2019 22:00 574.39 0.00 -- 51.6 100.0
06/01/2019 21:00 574.38 0.00 -- 51.4 100.0
06/01/2019 20:00 574.37 0.00 -- 51.7 100.0
06/01/2019 19:00 574.39 0.00 -- 51.2 100.0
06/01/2019 18:00 574.38 0.00 -- 52.2 100.0
06/01/2019 17:00 574.38 0.00 -- 54.9 100.0
06/01/2019 16:00 574.38 0.00 -- 57.6 100.0
06/01/2019 15:00 574.38 0.00 -- 60.4 100.0
06/01/2019 14:00 574.38 0.00 -- 63.4 100.0
06/01/2019 13:00 574.39 0.00 -- 65.9 100.0
06/01/2019 12:00 574.38 0.00 -- 67.2 100.0
06/01/2019 11:00 574.38 0.00 -- 68.1 100.0
06/01/2019 10:00 574.38 0.00 -- 67.3 100.0
06/01/2019 09:00 574.39 0.00 -- 67.3 100.0
06/01/2019 08:00 574.39 0.00 -- 65.6 100.0
06/01/2019 07:00 574.40 0.00 -- 61.8 100.0
06/01/2019 06:00 574.39 0.00 -- 56.7 100.0
06/01/2019 05:00 574.39 0.00 -- 56.5 100.0
06/01/2019 04:00 574.38 0.00 -- 55.8 100.0
06/01/2019 03:00 574.40 0.00 -- 52.2 100.0
06/01/2019 02:00 574.39 0.00 -- 48.3 100.0
06/01/2019 01:00 574.39 0.00 -- 46.9 100.0
06/01/2019 00:00 574.39 0.00 0.00 48.1 100.0
05/31/2019 23:00 574.38 0.00 -- 50.2 100.0
05/31/2019 22:00 574.39 0.00 -- 53.5 100.0
05/31/2019 21:00 574.41 0.00 -- 54.2 100.0
05/31/2019 20:00 574.39 0.00 -- 53.4 100.0
05/31/2019 19:00 574.39 0.00 -- 53.3 100.0
05/31/2019 18:00 574.39 0.00 -- 53.0 100.0
05/31/2019 17:00 574.38 0.00 -- 55.7 100.0
05/31/2019 16:00 574.39 0.00 -- 55.9 100.0
05/31/2019 15:00 574.39 0.00 -- 61.1 100.0
05/31/2019 14:00 574.39 0.00 -- 65.7 100.0
05/31/2019 13:00 574.39 0.00 -- 67.1 100.0
05/31/2019 12:00 574.41 0.00 -- 68.1 100.0
05/31/2019 11:00 574.37 0.00 -- 66.7 100.0
05/31/2019 10:00 574.41 0.00 -- 65.9 100.0
05/31/2019 09:00 574.40 0.00 -- 64.9 100.0
05/31/2019 08:00 574.39 0.00 -- 64.2 100.0
05/31/2019 07:00 574.41 0.00 -- 63.7 100.0
05/31/2019 06:00 574.40 0.00 -- 63.6 100.0
05/31/2019 05:00 574.41 0.00 -- 61.6 100.0
05/31/2019 04:00 574.41 0.00 -- 60.7 100.0
05/31/2019 03:00 574.42 0.00 -- 58.5 100.0
05/31/2019 02:00 574.40 0.00 -- 55.5 100.0
05/31/2019 01:00 574.40 0.00 -- 53.7 100.0
05/31/2019 00:00 574.40 0.00 0.00 53.5 100.0
05/30/2019 23:00 574.41 0.00 -- 54.6 100.0
05/30/2019 22:00 574.40 0.00 -- 55.4 100.0
05/30/2019 21:00 574.42 0.00 -- 55.6 100.0
05/30/2019 20:00 574.41 0.00 -- 54.8 100.0
05/30/2019 19:00 574.39 0.00 -- 54.5 100.0
05/30/2019 18:00 574.41 0.00 -- 54.2 100.0
05/30/2019 17:00 574.40 0.00 -- 54.8 100.0
05/30/2019 16:00 574.41 0.00 -- 55.6 100.0
05/30/2019 15:00 574.40 0.00 -- 57.9 100.0
05/30/2019 14:00 574.40 0.00 -- 61.0 100.0
05/30/2019 13:00 574.42 0.00 -- 63.2 100.0
05/30/2019 12:00 574.40 0.00 -- 63.3 100.0
05/30/2019 11:00 574.41 0.00 -- 62.9 100.0
05/30/2019 10:00 574.41 0.00 -- 62.4 100.0
05/30/2019 09:00 574.44 0.00 -- 60.0 100.0
05/30/2019 08:00 574.38 0.00 -- 57.5 100.0
05/30/2019 07:00 574.43 0.00 -- 55.0 100.0
05/30/2019 06:00 574.41 0.00 -- 53.6 100.0
05/30/2019 05:00 574.41 0.00 -- 51.5 100.0
05/30/2019 04:00 574.41 0.00 -- 51.2 100.0
05/30/2019 03:00 574.42 0.00 -- 49.2 100.0
05/30/2019 02:00 574.42 0.00 -- 47.8 100.0
05/30/2019 01:00 574.42 0.00 -- 47.8 100.0
05/30/2019 00:00 574.41 0.00 0.00 46.9 100.0
05/29/2019 23:00 574.42 0.00 -- 47.3 100.0
05/29/2019 22:00 574.41 0.00 -- 47.5 100.0
05/29/2019 21:00 574.39 0.00 -- 47.8 100.0
05/29/2019 20:00 574.40 0.00 -- 48.0 100.0
05/29/2019 19:00 574.43 0.00 -- 49.3 100.0
05/29/2019 18:00 574.41 0.00 -- 49.3 100.0
05/29/2019 17:00 574.42 0.00 -- 49.6 100.0
05/29/2019 16:00 574.41 0.00 -- 50.4 100.0
05/29/2019 15:00 574.44 0.00 -- 51.3 100.0
05/29/2019 14:00 574.40 0.00 -- 52.5 100.0
05/29/2019 13:00 574.41 0.00 -- 53.2 100.0
05/29/2019 12:00 574.44 0.00 -- 53.6 100.0
05/29/2019 11:00 574.43 0.00 -- 52.1 100.0
05/29/2019 10:00 574.43 0.00 -- 52.2 100.0
05/29/2019 09:00 574.40 0.00 -- 51.1 100.0
05/29/2019 08:00 574.43 0.00 -- 50.5 100.0
05/29/2019 07:00 574.41 0.00 -- 49.7 100.0
05/29/2019 06:00 574.42 0.00 -- 47.6 100.0
05/29/2019 05:00 574.41 0.00 -- 45.5 100.0
05/29/2019 04:00 574.41 0.00 -- 44.0 100.0
05/29/2019 03:00 574.40 0.01 -- 43.0 100.0
05/29/2019 02:00 574.41 0.00 -- 42.2 100.0
05/29/2019 01:00 574.40 0.00 -- 42.2 100.0
05/29/2019 00:00 574.41 0.00 0.01 42.1 100.0
05/28/2019 23:00 574.41 0.00 -- 42.0 100.0
05/28/2019 22:00 574.40 0.01 -- 41.9 100.0
05/28/2019 21:00 574.40 0.01 -- 41.8 100.0
05/28/2019 20:00 574.40 0.03 -- 41.9 100.0
05/28/2019 19:00 574.38 0.02 -- 42.0 100.0
05/28/2019 18:00 574.40 0.04 -- 41.9 100.0
05/28/2019 17:00 574.41 0.07 -- 42.0 100.0
05/28/2019 16:00 574.38 0.05 -- 42.2 100.0
05/28/2019 15:00 574.38 0.03 -- 42.8 100.0
05/28/2019 14:00 574.37 0.04 -- 42.9 100.0
05/28/2019 13:00 574.39 0.13 -- 43.9 100.0
05/28/2019 12:00 574.37 0.22 -- 44.1 100.0
05/28/2019 11:00 574.35 0.05 -- 43.9 100.0
05/28/2019 10:00 574.34 0.02 -- 44.6 100.0
05/28/2019 09:00 574.35 0.10 -- 44.8 100.0
05/28/2019 08:00 574.33 0.01 -- 47.2 100.0
05/28/2019 07:00 574.32 0.00 -- 52.1 100.0
05/28/2019 06:00 574.34 0.00 -- 52.6 100.0
05/28/2019 05:00 574.31 0.00 -- 52.8 100.0
05/28/2019 04:00 574.35 0.00 -- 52.6 100.0
05/28/2019 03:00 574.32 0.00 -- 50.0 100.0
05/28/2019 02:00 574.33 0.00 -- 46.8 100.0
05/28/2019 01:00 574.33 0.00 -- 42.1 100.0
05/28/2019 00:00 574.33 0.00 0.83 43.2 100.0
05/27/2019 23:00 574.33 0.00 -- 44.8 100.0
05/27/2019 22:00 574.33 0.00 -- 47.3 100.0
05/27/2019 21:00 574.33 0.00 -- 49.5 100.0
05/27/2019 20:00 574.33 0.00 -- 49.3 100.0
05/27/2019 19:00 574.33 0.00 -- 50.5 100.0
05/27/2019 18:00 574.33 0.00 -- 52.6 100.0
05/27/2019 17:00 574.33 0.00 -- 54.9 100.0
05/27/2019 16:00 574.33 0.00 -- 60.1 100.0
05/27/2019 15:00 574.35 0.00 -- 63.3 100.0
05/27/2019 14:00 574.33 0.00 -- 64.0 100.0
05/27/2019 13:00 574.33 0.00 -- 67.8 100.0
05/27/2019 12:00 574.33 0.00 -- 70.1 100.0
05/27/2019 11:00 574.30 0.00 -- 71.6 100.0
05/27/2019 10:00 574.34 0.00 -- 72.4 100.0
05/27/2019 09:00 574.34 0.00 -- 70.8 100.0
05/27/2019 08:00 574.34 0.00 -- 69.2 100.0
05/27/2019 07:00 574.34 0.00 -- 68.4 100.0
05/27/2019 06:00 574.35 0.00 -- 66.8 100.0
05/27/2019 05:00 574.34 0.00 -- 63.3 100.0
05/27/2019 04:00 574.35 0.00 -- 61.8 100.0
05/27/2019 03:00 574.36 0.00 -- 56.0 100.0
05/27/2019 02:00 574.34 0.00 -- 52.7 100.0
05/27/2019 01:00 574.34 0.00 -- 51.9 100.0
05/27/2019 00:00 574.34 0.00 0.00 52.8 100.0
05/26/2019 23:00 574.34 0.00 -- 54.0 100.0
05/26/2019 22:00 574.34 0.00 -- 53.6 100.0
05/26/2019 21:00 574.34 0.00 -- 55.6 100.0
05/26/2019 20:00 574.33 0.00 -- 57.3 100.0
05/26/2019 19:00 574.33 0.00 -- 58.8 100.0
05/26/2019 18:00 574.34 0.00 -- 60.7 100.0
05/26/2019 17:00 574.33 0.00 -- 62.9 100.0
05/26/2019 16:00 574.34 0.00 -- 66.9 100.0
05/26/2019 15:00 574.33 0.00 -- 73.8 100.0
05/26/2019 14:00 574.34 0.00 -- 76.9 100.0
05/26/2019 13:00 574.34 0.00 -- 77.8 100.0
05/26/2019 12:00 574.32 0.00 -- 77.9 100.0
05/26/2019 11:00 574.33 0.00 -- 77.7 100.0
05/26/2019 10:00 574.32 0.00 -- 77.5 100.0
05/26/2019 09:00 574.33 0.00 -- 74.1 100.0
05/26/2019 08:00 574.36 0.00 -- 74.4 100.0
05/26/2019 07:00 574.35 0.00 -- 70.5 100.0
05/26/2019 06:00 574.34 0.00 -- 67.0 100.0
05/26/2019 05:00 574.36 0.00 -- 61.0 100.0
05/26/2019 04:00 574.33 0.00 -- 59.1 100.0
05/26/2019 03:00 574.34 0.00 -- 54.4 100.0
05/26/2019 02:00 574.34 0.01 -- 52.5 100.0
05/26/2019 01:00 574.33 0.00 -- 52.4 100.0
05/26/2019 00:00 574.33 0.00 0.01 52.5 100.0
05/25/2019 23:00 574.37 0.00 -- 52.4 100.0
05/25/2019 22:00 574.35 0.07 -- 52.6 100.0
05/25/2019 21:00 574.34 0.18 -- 52.7 100.0
05/25/2019 20:00 574.29 0.02 -- 54.4 100.0
05/25/2019 19:00 574.31 0.00 -- 56.9 100.0
05/25/2019 18:00 574.32 0.00 -- 57.1 100.0
05/25/2019 17:00 574.31 0.00 -- 57.4 100.0
05/25/2019 16:00 574.29 0.00 -- 59.4 100.0
05/25/2019 15:00 574.32 0.00 -- 61.7 100.0
05/25/2019 14:00 574.31 0.00 -- 64.3 100.0
05/25/2019 13:00 574.31 0.00 -- 66.9 100.0
05/25/2019 12:00 574.30 0.00 -- 70.5 100.0
05/25/2019 11:00 574.31 0.00 -- 70.8 100.0
05/25/2019 10:00 574.32 0.00 -- 70.9 100.0
05/25/2019 09:00 574.31 0.00 -- 71.2 100.0
05/25/2019 08:00 574.30 0.00 -- 69.1 100.0
05/25/2019 07:00 574.31 0.00 -- 67.8 100.0
05/25/2019 06:00 574.30 0.00 -- 64.3 100.0
05/25/2019 05:00 574.31 0.00 -- 60.3 100.0
05/25/2019 04:00 574.31 0.00 -- 55.9 100.0
05/25/2019 03:00 574.31 0.00 -- 52.6 100.0
05/25/2019 02:00 574.29 0.00 -- 50.4 100.0
05/25/2019 01:00 574.31 0.00 -- 49.2 100.0
05/25/2019 00:00 574.31 0.00 0.27 49.3 100.0
05/24/2019 23:00 574.31 0.00 -- 49.5 100.0
05/24/2019 22:00 574.31 0.00 -- 47.7 100.0
05/24/2019 21:00 574.30 0.00 -- 46.0 100.0
05/24/2019 20:00 574.30 0.00 -- 46.6 100.0
05/24/2019 19:00 574.30 0.00 -- 46.6 100.0
05/24/2019 18:00 574.31 0.00 -- 47.6 100.0
05/24/2019 17:00 574.30 0.00 -- 49.4 100.0
05/24/2019 16:00 574.30 0.00 -- 53.9 100.0
05/24/2019 15:00 574.31 0.00 -- 57.7 100.0
05/24/2019 14:00 574.31 0.00 -- 58.8 100.0
05/24/2019 13:00 574.29 0.00 -- 59.2 100.0
05/24/2019 12:00 574.36 0.00 -- 58.7 100.0
05/24/2019 11:00 574.32 0.00 -- 59.1 100.0
05/24/2019 10:00 574.29 0.00 -- 57.6 100.0
05/24/2019 09:00 574.31 0.00 -- 57.8 100.0
05/24/2019 08:00 574.29 0.00 -- 58.6 100.0
05/24/2019 07:00 574.33 0.00 -- 59.3 100.0
05/24/2019 06:00 574.32 0.00 -- 60.0 100.0
05/24/2019 05:00 574.29 0.00 -- 60.7 100.0
05/24/2019 04:00 574.33 0.01 -- 59.0 100.0
05/24/2019 03:00 574.29 0.00 -- 57.5 100.0
05/24/2019 02:00 574.29 0.00 -- 55.8 100.0
05/24/2019 01:00 574.29 0.00 -- 54.6 100.0
05/24/2019 00:00 574.32 0.00 0.01 53.1 100.0
05/23/2019 23:00 574.32 0.00 -- 54.0 100.0
05/23/2019 22:00 574.31 0.00 -- 53.7 100.0
05/23/2019 21:00 574.29 0.00 -- 54.6 100.0
05/23/2019 20:00 574.36 0.01 -- 54.4 100.0
05/23/2019 19:00 574.36 0.25 -- 55.0 100.0
05/23/2019 18:00 574.24 0.08 -- 55.3 100.0
05/23/2019 17:00 574.28 0.03 -- 56.1 100.0
05/23/2019 16:00 574.23 0.01 -- 58.0 100.0
05/23/2019 15:00 574.26 0.00 -- 59.9 100.0
05/23/2019 14:00 574.28 0.01 -- 60.5 100.0
05/23/2019 13:00 574.28 0.00 -- 65.0 100.0
05/23/2019 12:00 574.26 0.00 -- 68.1 100.0
05/23/2019 11:00 574.26 0.00 -- 69.3 100.0
05/23/2019 10:00 574.28 0.00 -- 69.0 100.0
05/23/2019 09:00 574.26 0.00 -- 68.9 100.0
05/23/2019 08:00 574.28 0.00 -- 65.6 100.0
05/23/2019 07:00 574.27 0.00 -- 63.8 100.0
05/23/2019 06:00 574.28 0.00 -- 58.8 100.0
05/23/2019 05:00 574.29 0.00 -- 57.0 100.0
05/23/2019 04:00 574.27 0.00 -- 54.1 100.0
05/23/2019 03:00 574.26 0.00 -- 50.7 100.0
05/23/2019 02:00 574.27 0.00 -- 50.1 100.0
05/23/2019 01:00 574.28 0.00 -- 49.9 100.0
05/23/2019 00:00 574.28 0.00 0.39 50.4 100.0
05/22/2019 23:00 574.27 0.00 -- 50.6 100.0
05/22/2019 22:00 574.29 0.00 -- 51.6 100.0
05/22/2019 21:00 574.28 0.00 -- 52.8 100.0
05/22/2019 20:00 574.28 0.00 -- 52.6 100.0
05/22/2019 19:00 574.25 0.00 -- 53.0 100.0
05/22/2019 18:00 574.27 0.00 -- 51.8 100.0
05/22/2019 17:00 574.28 0.00 -- 54.6 100.0
05/22/2019 16:00 574.28 0.00 -- 56.3 100.0
05/22/2019 15:00 574.28 0.00 -- 61.1 100.0
05/22/2019 14:00 574.28 0.00 -- 64.5 100.0
05/22/2019 13:00 574.28 0.00 -- 65.7 100.0
05/22/2019 12:00 574.27 0.00 -- 66.4 100.0
05/22/2019 11:00 574.30 0.00 -- 65.2 100.0
05/22/2019 10:00 574.25 0.00 -- 64.0 100.0
05/22/2019 09:00 574.33 0.00 -- 61.9 100.0
05/22/2019 08:00 574.30 0.00 -- 60.1 100.0
05/22/2019 07:00 574.30 0.00 -- 58.0 100.0
05/22/2019 06:00 574.32 0.00 -- 55.2 100.0
05/22/2019 05:00 574.28 0.00 -- 52.9 100.0
05/22/2019 04:00 574.27 0.00 -- 51.2 100.0
05/22/2019 03:00 574.29 0.00 -- 49.6 100.0
05/22/2019 02:00 574.29 0.00 -- 47.6 100.0
05/22/2019 01:00 574.31 0.00 -- 46.0 100.0
05/22/2019 00:00 574.31 0.00 0.00 46.3 100.0
05/21/2019 23:00 574.31 0.00 -- 50.3 100.0
05/21/2019 22:00 574.31 0.00 -- 51.5 100.0
05/21/2019 21:00 574.28 0.00 -- 52.5 100.0
05/21/2019 20:00 574.28 0.00 -- 53.6 100.0
05/21/2019 19:00 574.35 0.00 -- 54.0 100.0
05/21/2019 18:00 574.29 0.00 -- 54.1 100.0
05/21/2019 17:00 574.28 0.00 -- 54.3 100.0
05/21/2019 16:00 574.28 0.00 -- 54.4 100.0
05/21/2019 15:00 574.28 0.00 -- 54.7 100.0
05/21/2019 14:00 574.26 0.00 -- 55.3 100.0
05/21/2019 13:00 574.35 0.00 -- 55.5 100.0
05/21/2019 12:00 574.31 0.00 -- 55.2 100.0
05/21/2019 11:00 574.34 0.00 -- 55.8 100.0
05/21/2019 10:00 574.29 0.00 -- 55.7 100.0
05/21/2019 09:00 574.35 0.00 -- 54.5 100.0
05/21/2019 08:00 574.27 0.00 -- 54.6 100.0
05/21/2019 07:00 574.36 0.00 -- 54.6 100.0
05/21/2019 06:00 574.31 0.00 -- 53.9 100.0
05/21/2019 05:00 574.36 0.00 -- 52.9 100.0
05/21/2019 04:00 574.33 0.00 -- 52.4 100.0
05/21/2019 03:00 574.32 0.00 -- 53.1 100.0
05/21/2019 02:00 574.29 0.00 -- 53.2 100.0
05/21/2019 01:00 574.28 0.00 -- 55.0 100.0
05/21/2019 00:00 574.32 0.00 0.00 55.6 100.0
05/20/2019 23:00 574.33 0.00 -- 57.0 100.0
05/20/2019 22:00 574.30 0.00 -- 58.8 100.0
05/20/2019 21:00 574.31 0.00 -- 60.9 100.0
05/20/2019 20:00 574.31 0.00 -- 62.9 100.0
05/20/2019 19:00 574.30 0.00 -- 65.2 82.0
05/20/2019 18:00 574.31 0.00 -- 62.8 75.0
05/20/2019 17:00 574.31 0.00 -- 62.8 70.0
05/20/2019 16:00 574.30 0.00 -- 64.1 67.0
05/20/2019 15:00 574.32 0.00 -- 66.2 66.0
05/20/2019 14:00 574.29 0.00 -- 68.0 66.0
05/20/2019 13:00 574.30 0.00 -- 69.6 66.0
05/20/2019 12:00 574.27 0.00 -- 72.6 60.0
05/20/2019 11:00 574.30 0.00 -- 79.1 43.0
05/20/2019 10:00 574.29 0.00 -- 77.2 38.0
05/20/2019 09:00 574.32 0.00 -- 75.6 38.0
05/20/2019 08:00 574.31 0.00 -- 71.8 48.0
05/20/2019 07:00 574.30 0.00 -- 69.9 63.0
05/20/2019 06:00 574.30 0.00 -- 67.0 100.0
05/20/2019 05:00 574.30 0.00 -- 62.5 100.0
05/20/2019 04:00 574.29 0.03 -- 56.0 100.0
05/20/2019 03:00 574.33 0.04 -- 54.5 100.0
05/20/2019 02:00 574.31 0.00 -- 54.7 100.0
05/20/2019 01:00 574.30 0.00 -- 54.0 100.0
05/20/2019 00:00 574.27 0.00 0.07 54.2 100.0
05/19/2019 23:00 574.27 0.00 -- 54.4 100.0
05/19/2019 22:00 574.27 0.01 -- 54.9 100.0
05/19/2019 21:00 574.29 0.00 -- 55.0 100.0
05/19/2019 20:00 574.34 0.01 -- 55.6 100.0
05/19/2019 19:00 574.41 0.12 -- 56.5 100.0
05/19/2019 18:00 574.23 0.06 -- 57.2 100.0
05/19/2019 17:00 574.31 0.00 -- 60.9 100.0
05/19/2019 16:00 574.27 0.00 -- 63.0 100.0
05/19/2019 15:00 574.29 0.00 -- 65.5 100.0
05/19/2019 14:00 574.26 0.00 -- 70.3 100.0
05/19/2019 13:00 574.26 0.00 -- 70.2 100.0
05/19/2019 12:00 574.27 0.00 -- 69.2 100.0
05/19/2019 11:00 574.27 0.00 -- 66.7 100.0
05/19/2019 10:00 574.28 0.00 -- 66.2 100.0
05/19/2019 09:00 574.26 0.00 -- 62.6 100.0
05/19/2019 08:00 574.27 0.00 -- 59.7 100.0
05/19/2019 07:00 574.22 0.00 -- 58.5 100.0
05/19/2019 06:00 574.27 0.00 -- 56.9 100.0
05/19/2019 05:00 574.30 0.00 -- 54.7 100.0
05/19/2019 04:00 574.31 0.00 -- 53.9 100.0
05/19/2019 03:00 574.28 0.00 -- 52.3 100.0
05/19/2019 02:00 574.31 0.00 -- 50.7 100.0
05/19/2019 01:00 574.26 0.00 -- 50.8 100.0
05/19/2019 00:00 574.27 0.00 0.20 51.6 100.0
05/18/2019 23:00 574.29 0.00 -- 49.0 100.0
05/18/2019 22:00 574.26 0.00 -- 48.2 100.0
05/18/2019 21:00 574.28 0.00 -- 47.8 100.0
05/18/2019 20:00 574.29 0.00 -- 48.8 100.0
05/18/2019 19:00 574.27 0.00 -- 51.1 100.0
05/18/2019 18:00 574.27 0.00 -- 54.1 100.0
05/18/2019 17:00 574.27 0.00 -- 54.7 100.0
05/18/2019 16:00 574.27 0.00 -- 59.4 100.0
05/18/2019 15:00 574.28 0.00 -- 60.5 100.0
05/18/2019 14:00 574.27 0.00 -- 62.9 100.0
05/18/2019 13:00 574.30 0.00 -- 63.3 100.0
05/18/2019 12:00 574.27 0.00 -- 65.3 100.0
05/18/2019 11:00 574.28 0.00 -- 64.4 100.0
05/18/2019 10:00 574.27 0.00 -- 63.6 100.0
05/18/2019 09:00 574.31 0.00 -- 62.6 100.0
05/18/2019 08:00 574.31 0.00 -- 60.4 100.0
05/18/2019 07:00 574.33 0.00 -- 59.1 100.0
05/18/2019 06:00 574.26 0.00 -- 57.4 100.0
05/18/2019 05:00 574.28 0.00 -- 55.8 100.0
05/18/2019 04:00 574.27 0.00 -- 52.7 100.0
05/18/2019 03:00 574.29 0.00 -- 51.0 100.0
05/18/2019 02:00 574.29 0.00 -- 48.5 100.0
05/18/2019 01:00 574.31 0.00 -- 48.5 100.0
05/18/2019 00:00 574.29 0.00 0.00 49.7 100.0
05/17/2019 23:00 574.29 0.00 -- 50.2 100.0
05/17/2019 22:00 574.26 0.00 -- 48.9 100.0
05/17/2019 21:00 574.27 0.00 -- 46.7 100.0
05/17/2019 20:00 574.28 0.00 -- 48.9 100.0
05/17/2019 19:00 574.29 0.00 -- 50.9 100.0
05/17/2019 18:00 574.30 0.00 -- 53.3 100.0
05/17/2019 17:00 574.30 0.00 -- 54.4 100.0
05/17/2019 16:00 574.27 0.00 -- 55.2 100.0
05/17/2019 15:00 574.27 0.00 -- 57.6 100.0
05/17/2019 14:00 574.26 0.00 -- 60.1 100.0
05/17/2019 13:00 574.27 0.00 -- 61.6 100.0
05/17/2019 12:00 574.28 0.00 -- 60.4 100.0
05/17/2019 11:00 574.27 0.00 -- 57.5 100.0
05/17/2019 10:00 574.26 0.00 -- 55.5 100.0
05/17/2019 09:00 574.28 0.00 -- 53.2 100.0
05/17/2019 08:00 574.27 0.00 -- 52.1 100.0
05/17/2019 07:00 574.30 0.00 -- 50.0 100.0
05/17/2019 06:00 574.27 0.01 -- 47.5 100.0
05/17/2019 05:00 574.26 0.00 -- 46.6 100.0
05/17/2019 04:00 574.26 0.08 -- 45.6 100.0
05/17/2019 03:00 574.28 0.09 -- 45.4 100.0
05/17/2019 02:00 574.23 0.01 -- 45.1 100.0
05/17/2019 01:00 574.26 0.00 -- 44.2 100.0
05/17/2019 00:00 574.25 0.00 0.19 43.1 100.0
05/16/2019 23:00 574.27 0.00 -- 42.5 100.0
05/16/2019 22:00 574.27 0.00 -- 44.4 100.0
05/16/2019 21:00 574.26 0.00 -- 45.5 100.0
05/16/2019 20:00 574.26 0.00 -- 44.9 100.0
05/16/2019 19:00 574.25 0.00 -- 45.2 100.0
05/16/2019 18:00 574.25 0.00 -- 46.3 100.0
05/16/2019 17:00 574.25 0.00 -- 48.9 100.0
05/16/2019 16:00 574.26 0.00 -- 52.1 100.0
05/16/2019 15:00 574.25 0.00 -- 56.0 100.0
05/16/2019 14:00 574.25 0.00 -- 57.7 100.0
05/16/2019 13:00 574.26 0.00 -- 58.5 100.0
05/16/2019 12:00 574.25 0.00 -- 59.5 100.0
05/16/2019 11:00 574.25 0.00 -- 59.8 100.0
05/16/2019 10:00 574.26 0.00 -- 61.4 100.0
05/16/2019 09:00 574.25 0.00 -- 59.4 100.0
05/16/2019 08:00 574.25 0.00 -- 59.4 100.0
05/16/2019 07:00 574.25 0.00 -- 59.1 100.0
05/16/2019 06:00 574.25 0.00 -- 56.3 100.0
05/16/2019 05:00 574.25 0.00 -- 54.5 100.0
05/16/2019 04:00 574.26 0.00 -- 48.9 100.0
05/16/2019 03:00 574.25 0.00 -- 48.1 100.0
05/16/2019 02:00 574.25 0.00 -- 45.7 100.0
05/16/2019 01:00 574.26 0.00 -- 44.6 100.0
05/16/2019 00:00 574.25 0.00 0.00 44.0 100.0
05/15/2019 23:00 574.25 0.00 -- 44.1 100.0
05/15/2019 22:00 574.25 0.00 -- 44.6 100.0
05/15/2019 21:00 574.24 0.00 -- 44.9 100.0
05/15/2019 20:00 574.25 0.00 -- 45.9 100.0
05/15/2019 19:00 574.25 0.00 -- 45.5 100.0
05/15/2019 18:00 574.25 0.00 -- 44.4 100.0
05/15/2019 17:00 574.25 0.00 -- 45.9 100.0
05/15/2019 16:00 574.25 0.00 -- 47.8 100.0
05/15/2019 15:00 574.25 0.00 -- 50.6 100.0
05/15/2019 14:00 574.25 0.00 -- 51.9 100.0
05/15/2019 13:00 574.25 0.00 -- 51.7 100.0
05/15/2019 12:00 574.23 0.00 -- 52.6 100.0
05/15/2019 11:00 574.24 0.01 -- 52.2 100.0
05/15/2019 10:00 574.25 0.00 -- 51.1 100.0
05/15/2019 09:00 574.26 0.00 -- 50.7 100.0
05/15/2019 08:00 574.27 0.00 -- 50.1 100.0
05/15/2019 07:00 574.25 0.00 -- 49.3 100.0
05/15/2019 06:00 574.24 0.00 -- 47.1 100.0
05/15/2019 05:00 574.25 0.00 -- 45.3 100.0
05/15/2019 04:00 574.24 0.00 -- 43.0 100.0
05/15/2019 03:00 574.24 0.00 -- 42.1 100.0
05/15/2019 02:00 574.24 0.00 -- 40.9 100.0
05/15/2019 01:00 574.24 0.00 -- 40.4 100.0
05/15/2019 00:00 574.24 0.00 0.01 40.5 100.0
05/14/2019 23:00 574.24 0.00 -- 40.2 100.0
05/14/2019 22:00 574.24 0.00 -- 40.8 100.0
05/14/2019 21:00 574.25 0.00 -- 40.7 100.0
05/14/2019 20:00 574.24 0.00 -- 40.4 100.0
05/14/2019 19:00 574.24 0.00 -- 40.2 100.0
05/14/2019 18:00 574.24 0.00 -- 40.3 100.0
05/14/2019 17:00 574.24 0.00 -- 40.1 100.0
05/14/2019 16:00 574.24 0.00 -- 40.2 100.0
05/14/2019 15:00 574.23 0.00 -- 40.7 100.0
05/14/2019 14:00 574.24 0.00 -- 41.8 100.0
05/14/2019 13:00 574.22 0.00 -- 41.6 100.0
05/14/2019 12:00 574.22 0.00 -- 42.7 100.0
05/14/2019 11:00 574.23 0.00 -- 42.8 100.0
05/14/2019 10:00 574.22 0.01 -- 41.8 100.0
05/14/2019 09:00 574.23 0.00 -- 41.2 100.0
05/14/2019 08:00 574.23 0.00 -- 40.9 81.0
05/14/2019 07:00 574.22 0.00 -- 39.7 100.0
05/14/2019 06:00 574.23 0.01 -- 39.4 100.0
05/14/2019 05:00 574.23 0.01 -- 37.4 100.0
05/14/2019 04:00 574.22 0.02 -- 35.9 100.0
05/14/2019 03:00 574.22 0.03 -- 35.2 100.0
05/14/2019 02:00 574.22 0.01 -- 34.3 100.0
05/14/2019 01:00 574.21 0.04 -- 34.3 100.0
05/14/2019 00:00 574.21 0.03 0.13 35.1 100.0
05/13/2019 23:00 574.23 0.02 -- 36.1 100.0
05/13/2019 22:00 574.22 0.04 -- 37.8 100.0
05/13/2019 21:00 574.23 0.04 -- 38.2 100.0
05/13/2019 20:00 574.20 0.04 -- 38.7 100.0
05/13/2019 19:00 574.19 0.09 -- 39.4 100.0
05/13/2019 18:00 574.19 0.08 -- 40.2 100.0
05/13/2019 17:00 574.20 0.01 -- 41.1 100.0
05/13/2019 16:00 574.20 0.00 -- 42.4 100.0
05/13/2019 15:00 574.19 0.00 -- 43.3 100.0
05/13/2019 14:00 574.21 0.00 -- 44.1 100.0
05/13/2019 13:00 574.23 0.00 -- 45.6 100.0
05/13/2019 12:00 574.21 0.00 -- 47.5 100.0
05/13/2019 11:00 574.23 0.00 -- 48.8 100.0
05/13/2019 10:00 574.18 0.00 -- 50.1 100.0
05/13/2019 09:00 574.24 0.00 -- 54.1 100.0
05/13/2019 08:00 574.22 0.00 -- 53.6 100.0
05/13/2019 07:00 574.23 0.00 -- 52.3 100.0
05/13/2019 06:00 574.21 0.00 -- 52.9 100.0
05/13/2019 05:00 574.21 0.00 -- 53.0 100.0
05/13/2019 04:00 574.20 0.00 -- 49.8 100.0
05/13/2019 03:00 574.23 0.00 -- 46.2 100.0
05/13/2019 02:00 574.23 0.00 -- 43.9 100.0
05/13/2019 01:00 574.22 0.00 -- 42.8 100.0
05/13/2019 00:00 574.22 0.00 0.35 42.8 100.0
05/12/2019 23:00 574.22 0.00 -- 43.1 100.0
05/12/2019 22:00 574.21 0.00 -- 43.7 100.0
05/12/2019 21:00 574.24 0.00 -- 43.8 100.0
05/12/2019 20:00 574.23 0.00 -- 44.4 100.0
05/12/2019 19:00 574.23 0.00 -- 45.1 100.0
05/12/2019 18:00 574.22 0.00 -- 45.9 100.0
05/12/2019 17:00 574.23 0.00 -- 47.4 100.0
05/12/2019 16:00 574.24 0.00 -- 48.0 100.0
05/12/2019 15:00 574.24 0.00 -- 49.4 100.0
05/12/2019 14:00 574.23 0.00 -- 50.8 100.0
05/12/2019 13:00 574.24 0.00 -- 51.7 100.0
05/12/2019 12:00 574.22 0.00 -- 52.6 100.0
05/12/2019 11:00 574.24 0.00 -- 53.1 100.0
05/12/2019 10:00 574.24 0.00 -- 53.3 100.0
05/12/2019 09:00 574.24 0.00 -- 51.7 100.0
05/12/2019 08:00 574.25 0.00 -- 51.4 100.0
05/12/2019 07:00 574.25 0.00 -- 51.2 100.0
05/12/2019 06:00 574.26 0.00 -- 50.0 100.0
05/12/2019 05:00 574.26 0.00 -- 48.9 100.0
05/12/2019 04:00 574.25 0.00 -- 46.8 100.0
05/12/2019 03:00 574.27 0.00 -- 44.1 100.0
05/12/2019 02:00 574.25 0.00 -- 42.3 100.0
05/12/2019 01:00 574.25 0.00 -- 40.9 100.0
05/12/2019 00:00 574.25 0.00 0.00 41.5 100.0
05/11/2019 23:00 574.26 0.00 -- 43.1 100.0
05/11/2019 22:00 574.26 0.00 -- 43.9 100.0
05/11/2019 21:00 574.28 0.00 -- 44.5 100.0
05/11/2019 20:00 574.28 0.00 -- 46.4 100.0
05/11/2019 19:00 574.26 0.00 -- 46.5 100.0
05/11/2019 18:00 574.26 0.00 -- 48.2 100.0
05/11/2019 17:00 574.28 0.00 -- 49.1 100.0
05/11/2019 16:00 574.26 0.00 -- 51.1 100.0
05/11/2019 15:00 574.26 0.00 -- 53.5 100.0
05/11/2019 14:00 574.29 0.00 -- 55.2 100.0
05/11/2019 13:00 574.28 0.00 -- 56.3 100.0
05/11/2019 12:00 574.23 0.00 -- 57.5 100.0
05/11/2019 11:00 574.28 0.00 -- 58.3 100.0
05/11/2019 10:00 574.26 0.00 -- 56.2 100.0
05/11/2019 09:00 574.26 0.00 -- 55.1 100.0
05/11/2019 08:00 574.26 0.00 -- 54.3 100.0
05/11/2019 07:00 574.29 0.00 -- 54.6 100.0
05/11/2019 06:00 574.28 0.00 -- 53.4 90.0
05/11/2019 05:00 574.32 0.00 -- 52.8 63.0
05/11/2019 04:00 574.30 0.00 -- 51.6 56.0
05/11/2019 03:00 574.30 0.00 -- 50.5 48.0
05/11/2019 02:00 574.30 0.00 -- 48.6 59.0
05/11/2019 01:00 574.30 0.00 -- 48.7 76.0
05/11/2019 00:00 574.29 0.00 0.00 49.4 88.0
05/10/2019 23:00 574.30 0.00 -- 48.8 100.0
05/10/2019 22:00 574.30 0.00 -- 47.3 100.0
05/10/2019 21:00 574.30 0.00 -- 48.7 100.0
05/10/2019 20:00 574.28 0.00 -- 47.5 93.0
05/10/2019 19:00 574.30 0.00 -- 47.6 86.0
05/10/2019 18:00 574.30 0.00 -- 47.5 100.0
05/10/2019 17:00 574.32 0.00 -- 47.6 100.0
05/10/2019 16:00 574.32 0.00 -- 47.5 100.0
05/10/2019 15:00 574.29 0.00 -- 47.7 100.0
05/10/2019 14:00 574.31 0.01 -- 47.7 100.0
05/10/2019 13:00 574.29 0.00 -- 47.3 100.0
05/10/2019 12:00 574.30 0.01 -- 47.3 100.0
05/10/2019 11:00 574.30 0.07 -- 47.2 100.0
05/10/2019 10:00 574.31 0.02 -- 46.2 100.0
05/10/2019 09:00 574.31 0.06 -- 45.4 100.0
05/10/2019 08:00 574.29 0.02 -- 45.0 100.0
05/10/2019 07:00 574.30 0.01 -- 44.5 100.0
05/10/2019 06:00 574.32 0.00 -- 44.4 100.0
05/10/2019 05:00 574.32 0.01 -- 43.7 100.0
05/10/2019 04:00 574.29 0.02 -- 42.5 100.0
05/10/2019 03:00 574.30 0.00 -- 41.4 100.0
05/10/2019 02:00 574.30 0.01 -- 41.1 100.0
05/10/2019 01:00 574.29 0.03 -- 40.9 100.0
05/10/2019 00:00 574.32 0.01 0.27 40.3 100.0
05/09/2019 23:00 574.29 0.05 -- 40.6 100.0
05/09/2019 22:00 574.31 0.02 -- 41.4 100.0
05/09/2019 21:00 574.29 0.01 -- 41.2 100.0
05/09/2019 20:00 574.29 0.01 -- 41.8 100.0
05/09/2019 19:00 574.29 0.00 -- 46.6 100.0
05/09/2019 18:00 574.29 0.00 -- 47.0 100.0
05/09/2019 17:00 574.31 0.00 -- 49.1 100.0
05/09/2019 16:00 574.28 0.00 -- 49.5 100.0
05/09/2019 15:00 574.32 0.00 -- 51.4 100.0
05/09/2019 14:00 574.33 0.00 -- 53.5 100.0
05/09/2019 13:00 574.33 0.00 -- 55.3 100.0
05/09/2019 12:00 574.32 0.00 -- 57.0 100.0
05/09/2019 11:00 574.31 0.00 -- 60.0 100.0
05/09/2019 10:00 574.31 0.00 -- 62.0 100.0
05/09/2019 09:00 574.32 0.00 -- 60.1 100.0
05/09/2019 08:00 574.34 0.00 -- 58.1 100.0
05/09/2019 07:00 574.33 0.00 -- 53.8 100.0
05/09/2019 06:00 574.34 0.00 -- 50.5 100.0
05/09/2019 05:00 574.33 0.00 -- 48.2 100.0
05/09/2019 04:00 574.34 0.00 -- 44.0 100.0
05/09/2019 03:00 574.33 0.00 -- 39.7 100.0
05/09/2019 02:00 574.32 0.00 -- 34.3 100.0
05/09/2019 01:00 574.34 0.00 -- 33.6 100.0
05/09/2019 00:00 574.34 0.00 0.10 34.5 100.0
05/08/2019 23:00 574.35 0.00 -- 36.0 100.0
05/08/2019 22:00 574.33 0.00 -- 38.2 100.0
05/08/2019 21:00 574.34 0.00 -- 39.1 100.0
05/08/2019 20:00 574.34 0.00 -- 41.1 100.0
05/08/2019 19:00 574.35 0.00 -- 44.1 100.0
05/08/2019 18:00 574.34 0.00 -- 46.1 100.0
05/08/2019 17:00 574.36 0.00 -- 49.7 100.0
05/08/2019 16:00 574.35 0.00 -- 51.7 100.0
05/08/2019 15:00 574.36 0.00 -- 54.4 100.0
05/08/2019 14:00 574.36 0.00 -- 56.2 100.0
05/08/2019 13:00 574.39 0.00 -- 57.9 100.0
05/08/2019 12:00 574.37 0.00 -- 59.6 100.0
05/08/2019 11:00 574.39 0.00 -- 59.5 100.0
05/08/2019 10:00 574.38 0.00 -- 58.5 100.0
05/08/2019 09:00 574.40 0.00 -- 55.8 100.0
05/08/2019 08:00 574.42 0.00 -- 54.4 100.0
05/08/2019 07:00 574.37 0.00 -- 52.8 100.0
05/08/2019 06:00 574.35 0.00 -- 51.3 100.0
05/08/2019 05:00 574.38 0.00 -- 49.3 98.0
05/08/2019 04:00 574.38 0.00 -- 47.6 100.0
05/08/2019 03:00 574.37 0.00 -- 45.7 100.0
05/08/2019 02:00 574.37 0.00 -- 43.6 100.0
05/08/2019 01:00 574.38 0.00 -- 43.6 100.0
05/08/2019 00:00 574.40 0.00 0.00 44.8 100.0
05/07/2019 23:00 574.37 0.00 -- 44.5 100.0
05/07/2019 22:00 574.38 0.00 -- 45.4 100.0
05/07/2019 21:00 574.39 0.00 -- 45.6 100.0
05/07/2019 20:00 574.39 0.00 -- 46.3 100.0
05/07/2019 19:00 574.40 0.00 -- 47.1 100.0
05/07/2019 18:00 574.40 0.00 -- 49.4 100.0
05/07/2019 17:00 574.39 0.00 -- 52.5 100.0
05/07/2019 16:00 574.39 0.00 -- 54.2 100.0
05/07/2019 15:00 574.37 0.01 -- 55.2 100.0
05/07/2019 14:00 574.40 0.01 -- 55.3 100.0
05/07/2019 13:00 574.41 0.03 -- 55.6 100.0
05/07/2019 12:00 574.40 0.00 -- 55.9 100.0
05/07/2019 11:00 574.40 0.00 -- 58.7 100.0
05/07/2019 10:00 574.39 0.00 -- 59.1 100.0
05/07/2019 09:00 574.41 0.02 -- 55.2 100.0
05/07/2019 08:00 574.40 0.00 -- 58.1 100.0
05/07/2019 07:00 574.39 0.00 -- 61.1 100.0
05/07/2019 06:00 574.42 0.00 -- 55.8 100.0
05/07/2019 05:00 574.42 0.00 -- 54.9 100.0
05/07/2019 04:00 574.36 0.00 -- 52.8 100.0
05/07/2019 03:00 574.42 0.00 -- 52.7 100.0
05/07/2019 02:00 574.43 0.00 -- 45.1 100.0
05/07/2019 01:00 574.42 0.00 -- 43.8 100.0
05/07/2019 00:00 574.42 0.00 0.07 43.8 100.0
05/06/2019 23:00 574.41 0.00 -- 44.3 100.0
05/06/2019 22:00 574.42 0.00 -- 45.1 100.0
05/06/2019 21:00 574.42 0.00 -- 45.0 100.0
05/06/2019 20:00 574.42 0.00 -- 46.0 100.0
05/06/2019 19:00 574.43 0.00 -- 46.4 100.0
05/06/2019 18:00 574.43 0.00 -- 47.5 100.0
05/06/2019 17:00 574.44 0.00 -- 49.1 100.0
05/06/2019 16:00 574.43 0.00 -- 55.9 100.0
05/06/2019 15:00 574.44 0.00 -- 57.1 100.0
05/06/2019 14:00 574.45 0.00 -- 60.2 100.0
05/06/2019 13:00 574.43 0.00 -- 62.4 100.0
05/06/2019 12:00 574.44 0.00 -- 65.2 100.0
05/06/2019 11:00 574.44 0.00 -- 64.6 100.0
05/06/2019 10:00 574.44 0.00 -- 64.7 100.0
05/06/2019 09:00 574.43 0.00 -- 64.7 100.0
05/06/2019 08:00 574.44 0.00 -- 62.1 100.0
05/06/2019 07:00 574.45 0.00 -- 57.4 93.0
05/06/2019 06:00 574.45 0.00 -- 54.7 92.0
05/06/2019 05:00 574.46 0.00 -- 52.1 95.0
05/06/2019 04:00 574.45 0.00 -- 47.2 99.0
05/06/2019 03:00 574.45 0.00 -- 44.9 100.0
05/06/2019 02:00 574.46 0.00 -- 42.0 100.0
05/06/2019 01:00 574.47 0.00 -- 42.6 100.0
05/06/2019 00:00 574.47 0.00 0.00 44.1 100.0
05/05/2019 23:00 574.46 0.00 -- 45.0 100.0
05/05/2019 22:00 574.47 0.00 -- 45.8 100.0
05/05/2019 21:00 574.47 0.00 -- 46.6 98.0
05/05/2019 20:00 574.48 0.00 -- 47.4 93.0
05/05/2019 19:00 574.47 0.00 -- 47.9 89.0
05/05/2019 18:00 574.48 0.00 -- 49.0 80.0
05/05/2019 17:00 574.48 0.00 -- 50.5 70.0
05/05/2019 16:00 574.49 0.00 -- 52.7 62.0
05/05/2019 15:00 574.48 0.00 -- 55.6 60.0
05/05/2019 14:00 574.49 0.00 -- 57.7 59.0
05/05/2019 13:00 574.48 0.00 -- 59.6 56.0
05/05/2019 12:00 574.49 0.00 -- 59.7 55.0
05/05/2019 11:00 574.49 0.00 -- 60.0 53.0
05/05/2019 10:00 574.48 0.00 -- 60.1 47.0
05/05/2019 09:00 574.50 0.00 -- 59.7 47.0
05/05/2019 08:00 574.50 0.00 -- 59.0 43.0
05/05/2019 07:00 574.50 0.00 -- 57.8 37.0
05/05/2019 06:00 574.51 0.00 -- 55.6 42.0
05/05/2019 05:00 574.50 0.00 -- 52.9 43.0
05/05/2019 04:00 574.50 0.00 -- 50.3 43.0
05/05/2019 03:00 574.50 0.00 -- 49.5 41.0
05/05/2019 02:00 574.51 0.00 -- 49.0 39.0
05/05/2019 01:00 574.51 0.00 -- 49.2 38.0
05/05/2019 00:00 574.51 0.00 0.00 49.4 37.0
05/04/2019 23:00 574.51 0.00 -- 49.1 36.0
05/04/2019 22:00 574.52 0.00 -- 49.5 34.0
05/04/2019 21:00 574.52 0.00 -- 49.5 33.0
05/04/2019 20:00 574.52 0.00 -- 49.9 31.0
05/04/2019 19:00 574.51 0.00 -- 51.0 30.0
05/04/2019 18:00 574.51 0.00 -- 51.7 29.0
05/04/2019 17:00 574.52 0.00 -- 52.9 27.0
05/04/2019 16:00 574.52 0.00 -- 54.3 27.0
05/04/2019 15:00 574.52 0.00 -- 57.1 27.0
05/04/2019 14:00 574.53 0.00 -- 59.5 28.0
05/04/2019 13:00 574.52 0.00 -- 61.6 28.0
05/04/2019 12:00 574.53 0.00 -- 65.0 28.0
05/04/2019 11:00 574.51 0.00 -- 63.2 25.0
05/04/2019 10:00 574.53 0.00 -- 62.3 25.0
05/04/2019 09:00 574.52 0.00 -- 60.3 30.0
05/04/2019 08:00 574.56 0.00 -- 59.4 32.0
05/04/2019 07:00 574.53 0.00 -- 54.6 48.0
05/04/2019 06:00 574.54 0.00 -- 50.2 57.0
05/04/2019 05:00 574.56 0.00 -- 47.4 68.0
05/04/2019 04:00 574.55 0.00 -- 45.4 67.0
05/04/2019 03:00 574.54 0.00 -- 43.6 73.0
05/04/2019 02:00 574.53 0.01 -- 43.4 76.0
05/04/2019 01:00 574.54 0.00 -- 43.1 75.0
05/04/2019 00:00 574.54 0.00 0.01 43.0 77.0
05/03/2019 23:00 574.56 0.00 -- 43.0 77.0
05/03/2019 22:00 574.56 0.00 -- 43.0 79.0
05/03/2019 21:00 574.56 0.00 -- 43.2 82.0
05/03/2019 20:00 574.56 0.00 -- 43.1 85.0
05/03/2019 19:00 574.54 0.00 -- 43.1 86.0
05/03/2019 18:00 574.55 0.01 -- 43.2 88.0
05/03/2019 17:00 574.54 0.00 -- 43.2 90.0
05/03/2019 16:00 574.56 0.00 -- 43.2 94.0
05/03/2019 15:00 574.57 0.01 -- 43.3 97.0
05/03/2019 14:00 574.54 0.00 -- 43.5 97.0
05/03/2019 13:00 574.56 0.00 -- 43.7 99.0
05/03/2019 12:00 574.55 0.00 -- 44.0 99.0
05/03/2019 11:00 574.54 0.05 -- 44.4 100.0
05/03/2019 10:00 574.54 0.09 -- 44.7 100.0
05/03/2019 09:00 574.53 0.08 -- 44.0 100.0
05/03/2019 08:00 574.53 0.00 -- 44.2 100.0
05/03/2019 07:00 574.54 0.00 -- 44.3 100.0
05/03/2019 06:00 574.53 0.00 -- 42.8 100.0
05/03/2019 05:00 574.55 0.00 -- 42.2 100.0
05/03/2019 04:00 574.53 0.00 -- 41.7 100.0
05/03/2019 03:00 574.56 0.00 -- 40.8 100.0
05/03/2019 02:00 574.56 0.00 -- 40.2 100.0
05/03/2019 01:00 574.56 0.00 -- 40.1 100.0
05/03/2019 00:00 574.56 0.00 0.24 40.2 100.0
05/02/2019 23:00 574.56 0.00 -- 40.2 100.0
05/02/2019 22:00 574.55 0.00 -- 40.4 100.0
05/02/2019 21:00 574.58 0.00 -- 40.5 100.0
05/02/2019 20:00 574.57 0.00 -- 40.6 100.0
05/02/2019 19:00 574.57 0.00 -- 40.8 100.0
05/02/2019 18:00 574.57 0.00 -- 41.0 100.0
05/02/2019 17:00 574.57 0.00 -- 41.1 100.0
05/02/2019 16:00 574.56 0.00 -- 41.3 100.0
05/02/2019 15:00 574.56 0.00 -- 41.4 100.0
05/02/2019 14:00 574.57 0.00 -- 41.5 100.0
05/02/2019 13:00 574.58 0.00 -- 41.5 100.0
05/02/2019 12:00 574.59 0.00 -- 41.2 100.0
05/02/2019 11:00 574.58 0.00 -- 41.9 100.0
05/02/2019 10:00 574.60 0.01 -- 41.1 95.0
05/02/2019 09:00 574.56 0.00 -- 41.2 77.0
05/02/2019 08:00 574.58 0.00 -- 41.6 100.0
05/02/2019 07:00 574.60 0.00 -- 41.9 100.0
05/02/2019 06:00 574.55 0.00 -- 41.9 100.0
05/02/2019 05:00 574.61 0.01 -- 41.4 100.0
05/02/2019 04:00 574.57 0.00 -- 40.8 100.0
05/02/2019 03:00 574.60 0.00 -- 41.0 100.0
05/02/2019 02:00 574.62 0.00 -- 41.3 100.0
05/02/2019 01:00 574.59 0.01 -- 41.1 100.0
05/02/2019 00:00 574.60 0.03 0.03 41.2 100.0
05/01/2019 23:00 574.55 0.06 -- 41.3 100.0
05/01/2019 22:00 574.57 0.09 -- 41.5 100.0
05/01/2019 21:00 574.54 0.16 -- 41.6 100.0
05/01/2019 20:00 574.54 0.13 -- 42.1 100.0
05/01/2019 19:00 574.50 0.00 -- 43.6 100.0
05/01/2019 18:00 574.56 0.00 -- 46.5 100.0
05/01/2019 17:00 574.54 0.00 -- 45.7 100.0
05/01/2019 16:00 574.52 0.00 -- 45.5 100.0
05/01/2019 15:00 574.56 0.00 -- 46.5 100.0
05/01/2019 14:00 574.53 0.00 -- 47.5 100.0
05/01/2019 13:00 574.54 0.00 -- 47.4 100.0
05/01/2019 12:00 574.53 0.00 -- 47.1 100.0
05/01/2019 11:00 574.55 0.00 -- 49.8 100.0
05/01/2019 10:00 574.56 0.00 -- 50.9 100.0
05/01/2019 09:00 574.54 0.00 -- 50.6 100.0
05/01/2019 08:00 574.55 0.00 -- 50.5 100.0
05/01/2019 07:00 574.56 0.00 -- 50.3 100.0
05/01/2019 06:00 574.55 0.00 -- 48.8 100.0
05/01/2019 05:00 574.55 0.00 -- 47.4 100.0
05/01/2019 04:00 574.56 0.00 -- 45.2 100.0
05/01/2019 03:00 574.55 0.00 -- 43.2 100.0
05/01/2019 02:00 574.54 0.00 -- 40.8 100.0
05/01/2019 01:00 574.55 0.00 -- 41.5 100.0
05/01/2019 00:00 574.54 0.00 0.47 41.7 100.0
04/30/2019 23:00 574.56 0.00 -- 42.9 100.0
04/30/2019 22:00 574.56 0.00 -- 42.6 100.0
04/30/2019 21:00 574.56 0.00 -- 41.9 100.0
04/30/2019 20:00 574.57 0.00 -- 40.5 100.0
04/30/2019 19:00 574.58 0.00 -- 40.2 100.0
04/30/2019 18:00 574.56 0.00 -- 40.2 100.0
04/30/2019 17:00 574.55 0.00 -- 42.7 100.0
04/30/2019 16:00 574.57 0.00 -- 42.1 100.0
04/30/2019 15:00 574.57 0.00 -- 45.3 100.0
04/30/2019 14:00 574.55 0.00 -- 48.6 100.0
04/30/2019 13:00 574.56 0.00 -- 47.4 100.0
04/30/2019 12:00 574.58 0.00 -- 45.9 100.0
04/30/2019 11:00 574.57 0.00 -- 44.1 100.0
04/30/2019 10:00 574.57 0.00 -- 44.0 100.0
04/30/2019 09:00 574.57 0.00 -- 43.3 100.0
04/30/2019 08:00 574.58 0.00 -- 41.8 100.0
04/30/2019 07:00 574.57 0.00 -- 41.4 100.0
04/30/2019 06:00 574.57 0.01 -- 40.0 100.0
04/30/2019 05:00 574.57 0.01 -- 39.9 100.0
04/30/2019 04:00 574.60 0.02 -- 39.5 100.0
04/30/2019 03:00 574.57 0.01 -- 39.1 100.0
04/30/2019 02:00 574.56 0.00 -- 38.8 100.0
04/30/2019 01:00 574.56 0.00 -- 39.3 100.0
04/30/2019 00:00 574.57 0.00 0.05 39.9 100.0
04/29/2019 23:00 574.58 0.00 -- 40.6 100.0
04/29/2019 22:00 574.58 0.00 -- 41.9 100.0
04/29/2019 21:00 574.58 0.00 -- 43.5 100.0
04/29/2019 20:00 574.56 0.00 -- 42.6 100.0
04/29/2019 19:00 574.56 0.00 -- 43.2 100.0
04/29/2019 18:00 574.57 0.00 -- 43.6 100.0
04/29/2019 17:00 574.57 0.00 -- 44.0 100.0
04/29/2019 16:00 574.58 0.00 -- 44.9 100.0
04/29/2019 15:00 574.58 0.00 -- 47.7 100.0
04/29/2019 14:00 574.58 0.00 -- 49.6 100.0
04/29/2019 13:00 574.58 0.00 -- 50.3 100.0
04/29/2019 12:00 574.54 0.00 -- 50.8 100.0
04/29/2019 11:00 574.59 0.00 -- 50.2 100.0
04/29/2019 10:00 574.51 0.00 -- 49.7 100.0
04/29/2019 09:00 574.55 0.00 -- 48.2 100.0
04/29/2019 08:00 574.54 0.00 -- 46.7 100.0
04/29/2019 07:00 574.56 0.00 -- 44.9 100.0
04/29/2019 06:00 574.60 0.00 -- 43.2 100.0
04/29/2019 05:00 574.59 0.00 -- 41.7 100.0
04/29/2019 04:00 574.62 0.00 -- 40.4 100.0
04/29/2019 03:00 574.60 0.00 -- 39.0 100.0
04/29/2019 02:00 574.60 0.00 -- 36.4 100.0
04/29/2019 01:00 574.61 0.00 -- 31.9 100.0
04/29/2019 00:00 574.60 0.00 0.00 33.9 100.0
04/28/2019 23:00 574.59 0.00 -- 34.5 100.0
04/28/2019 22:00 574.58 0.00 -- 35.1 100.0
04/28/2019 21:00 574.60 0.00 -- 34.7 100.0
04/28/2019 20:00 574.58 0.00 -- 36.6 100.0
04/28/2019 19:00 574.60 0.00 -- 41.5 100.0
04/28/2019 18:00 574.58 0.00 -- 43.6 100.0
04/28/2019 17:00 574.58 0.00 -- 45.5 100.0
04/28/2019 16:00 574.59 0.00 -- 47.2 100.0
04/28/2019 15:00 574.58 0.00 -- 48.8 100.0
04/28/2019 14:00 574.59 0.00 -- 49.5 100.0
04/28/2019 13:00 574.57 0.00 -- 49.9 100.0
04/28/2019 12:00 574.56 0.00 -- 49.8 100.0
04/28/2019 11:00 574.56 0.00 -- 49.7 100.0
04/28/2019 10:00 574.56 0.00 -- 49.5 100.0
04/28/2019 09:00 574.56 0.00 -- 47.5 100.0
04/28/2019 08:00 574.59 0.00 -- 46.8 100.0
04/28/2019 07:00 574.56 0.00 -- 45.5 100.0
04/28/2019 06:00 574.56 0.00 -- 45.1 100.0
04/28/2019 05:00 574.58 0.00 -- 42.6 100.0
04/28/2019 04:00 574.57 0.00 -- 40.7 100.0
04/28/2019 03:00 574.56 0.00 -- 40.2 100.0
04/28/2019 02:00 574.55 0.00 -- 38.3 100.0
04/28/2019 01:00 574.56 0.00 -- 38.2 100.0
04/28/2019 00:00 574.56 0.00 0.00 38.9 100.0
04/27/2019 23:00 574.57 0.00 -- 39.1 100.0
04/27/2019 22:00 574.56 0.00 -- 39.4 100.0
04/27/2019 21:00 574.57 0.00 -- 40.1 100.0
04/27/2019 20:00 574.51 0.00 -- 40.3 100.0
04/27/2019 19:00 574.55 0.00 -- 40.7 100.0
04/27/2019 18:00 574.56 0.00 -- 41.3 100.0
04/27/2019 17:00 574.54 0.00 -- 41.5 100.0
04/27/2019 16:00 574.52 0.00 -- 42.5 100.0
04/27/2019 15:00 574.50 0.00 -- 43.2 100.0
04/27/2019 14:00 574.52 0.00 -- 43.6 100.0
04/27/2019 13:00 574.53 0.00 -- 43.9 100.0
04/27/2019 12:00 574.53 0.00 -- 44.0 100.0
04/27/2019 11:00 574.55 0.00 -- 43.7 100.0
04/27/2019 10:00 574.48 0.00 -- 43.6 100.0
04/27/2019 09:00 574.47 0.00 -- 43.3 100.0
04/27/2019 08:00 574.43 0.00 -- 43.3 100.0
04/27/2019 07:00 574.47 0.00 -- 43.4 100.0
04/27/2019 06:00 574.44 0.00 -- 43.3 100.0
04/27/2019 05:00 574.41 0.00 -- 44.1 100.0
04/27/2019 04:00 574.41 0.00 -- 42.6 100.0
04/27/2019 03:00 574.45 0.03 -- 40.5 100.0
04/27/2019 02:00 574.42 0.14 -- 39.3 100.0
04/27/2019 01:00 574.32 0.08 -- 38.9 100.0
04/27/2019 00:00 574.34 0.29 0.25 39.1 100.0
04/26/2019 23:00 574.27 0.12 -- 39.0 100.0
04/26/2019 22:00 574.32 0.30 -- 38.8 100.0
04/26/2019 21:00 574.21 0.01 -- 38.5 100.0
04/26/2019 20:00 574.25 0.00 -- 38.0 100.0
04/26/2019 19:00 574.21 0.02 -- 37.9 100.0
04/26/2019 18:00 574.18 0.15 -- 37.8 100.0
04/26/2019 17:00 574.23 0.19 -- 38.0 100.0
04/26/2019 16:00 574.23 0.01 -- 38.2 100.0
04/26/2019 15:00 574.14 0.00 -- 38.6 100.0
04/26/2019 14:00 574.28 0.29 -- 38.6 100.0
04/26/2019 13:00 574.14 0.06 -- 39.4 100.0
04/26/2019 12:00 574.11 0.00 -- 40.1 100.0
04/26/2019 11:00 574.17 0.01 -- 40.9 100.0
04/26/2019 10:00 574.14 0.00 -- 41.7 100.0
04/26/2019 09:00 574.13 0.01 -- 41.9 100.0
04/26/2019 08:00 574.11 0.05 -- 42.4 100.0
04/26/2019 07:00 574.13 0.01 -- 43.3 100.0
04/26/2019 06:00 574.12 0.00 -- 43.3 100.0
04/26/2019 05:00 574.11 0.01 -- 43.0 100.0
04/26/2019 04:00 574.13 0.01 -- 42.7 100.0
04/26/2019 03:00 574.11 0.00 -- 42.3 100.0
04/26/2019 02:00 574.09 0.00 -- 42.1 100.0
04/26/2019 01:00 574.11 0.00 -- 41.9 100.0
04/26/2019 00:00 574.10 0.00 1.54 41.7 100.0
04/25/2019 23:00 574.11 0.00 -- 41.5 100.0
04/25/2019 22:00 574.12 0.00 -- 41.0 100.0
04/25/2019 21:00 574.12 0.00 -- 38.6 100.0
04/25/2019 20:00 574.10 0.00 -- 39.9 100.0
04/25/2019 19:00 574.10 0.00 -- 41.4 100.0
04/25/2019 18:00 574.10 0.00 -- 43.3 100.0
04/25/2019 17:00 574.09 0.00 -- 44.7 100.0
04/25/2019 16:00 574.09 0.00 -- 46.8 100.0
04/25/2019 15:00 574.09 0.00 -- 50.4 100.0
04/25/2019 14:00 574.11 0.00 -- 53.4 100.0
04/25/2019 13:00 574.09 0.00 -- 55.6 100.0
04/25/2019 12:00 574.09 0.00 -- 54.9 100.0
04/25/2019 11:00 574.09 0.00 -- 54.9 100.0
04/25/2019 10:00 574.08 0.00 -- 54.4 100.0
04/25/2019 09:00 574.09 0.00 -- 52.8 100.0
04/25/2019 08:00 574.08 0.00 -- 52.8 100.0
04/25/2019 07:00 574.08 0.00 -- 50.4 100.0
04/25/2019 06:00 574.07 0.00 -- 48.7 100.0
04/25/2019 05:00 574.07 0.00 -- 47.8 100.0
04/25/2019 04:00 574.08 0.00 -- 44.7 100.0
04/25/2019 03:00 574.06 0.00 -- 39.0 100.0
04/25/2019 02:00 574.07 0.00 -- 36.0 100.0
04/25/2019 01:00 574.06 0.00 -- 36.9 100.0
04/25/2019 00:00 574.06 0.00 0.00 39.2 100.0
04/24/2019 23:00 574.06 0.00 -- 41.3 100.0
04/24/2019 22:00 574.05 0.00 -- 41.8 100.0
04/24/2019 21:00 574.04 0.00 -- 42.6 100.0
04/24/2019 20:00 574.05 0.00 -- 43.0 100.0
04/24/2019 19:00 574.06 0.00 -- 44.2 100.0
04/24/2019 18:00 574.06 0.00 -- 45.3 100.0
04/24/2019 17:00 574.06 0.00 -- 45.4 100.0
04/24/2019 16:00 574.06 0.00 -- 47.4 100.0
04/24/2019 15:00 574.03 0.00 -- 48.7 100.0
04/24/2019 14:00 574.05 0.00 -- 50.1 100.0
04/24/2019 13:00 574.06 0.00 -- 50.6 100.0
04/24/2019 12:00 574.04 0.00 -- 51.7 100.0
04/24/2019 11:00 574.02 0.00 -- 53.5 100.0
04/24/2019 10:00 574.01 0.00 -- 53.3 100.0
04/24/2019 09:00 574.04 0.00 -- 52.9 100.0
04/24/2019 08:00 574.02 0.00 -- 50.8 100.0
04/24/2019 07:00 574.03 0.00 -- 46.8 100.0
04/24/2019 06:00 574.00 0.00 -- 43.1 100.0
04/24/2019 05:00 573.98 0.00 -- 41.8 100.0
04/24/2019 04:00 574.02 0.00 -- 41.3 100.0
04/24/2019 03:00 574.02 0.00 -- 40.9 100.0
04/24/2019 02:00 574.02 0.01 -- 40.6 100.0
04/24/2019 01:00 574.01 0.00 -- 40.4 100.0
04/24/2019 00:00 574.01 0.00 0.01 40.7 100.0
04/23/2019 23:00 574.01 0.02 -- 41.0 100.0
04/23/2019 22:00 574.02 0.07 -- 41.0 100.0
04/23/2019 21:00 573.94 0.08 -- 41.8 100.0
04/23/2019 20:00 573.97 0.03 -- 42.0 100.0
04/23/2019 19:00 573.95 0.00 -- 43.1 100.0
04/23/2019 18:00 573.97 0.00 -- 43.9 100.0
04/23/2019 17:00 573.99 0.00 -- 44.4 100.0
04/23/2019 16:00 573.99 0.00 -- 45.2 100.0
04/23/2019 15:00 573.96 0.00 -- 46.6 100.0
04/23/2019 14:00 573.95 0.00 -- 48.7 100.0
04/23/2019 13:00 573.97 0.00 -- 50.5 100.0
04/23/2019 12:00 573.94 0.00 -- 51.9 100.0
04/23/2019 11:00 573.95 0.00 -- 52.5 100.0
04/23/2019 10:00 573.95 0.00 -- 50.8 100.0
04/23/2019 09:00 573.94 0.00 -- 49.6 100.0
04/23/2019 08:00 573.94 0.00 -- 47.9 100.0
04/23/2019 07:00 573.93 0.00 -- 46.0 100.0
04/23/2019 06:00 573.92 0.00 -- 45.7 100.0
04/23/2019 05:00 573.93 0.00 -- 45.9 100.0
04/23/2019 04:00 573.91 0.00 -- 45.8 100.0
04/23/2019 03:00 573.92 0.00 -- 46.0 100.0
04/23/2019 02:00 573.91 0.00 -- 46.5 93.0
04/23/2019 01:00 573.92 0.00 -- 47.3 89.0
04/23/2019 00:00 573.93 0.00 0.20 48.1 85.0
04/22/2019 23:00 573.89 0.00 -- 48.7 82.0
04/22/2019 22:00 573.90 0.00 -- 49.2 78.0
04/22/2019 21:00 573.88 0.01 -- 49.9 74.0
04/22/2019 20:00 573.84 0.03 -- 50.5 69.0
04/22/2019 19:00 573.88 0.12 -- 52.1 68.0
04/22/2019 18:00 573.84 0.15 -- 53.7 64.0
04/22/2019 17:00 573.83 0.08 -- 54.3 64.0
04/22/2019 16:00 573.83 0.02 -- 55.1 61.0
04/22/2019 15:00 573.81 0.02 -- 55.7 58.0
04/22/2019 14:00 573.81 0.00 -- 56.5 57.0
04/22/2019 13:00 573.82 0.01 -- 57.5 57.0
04/22/2019 12:00 573.82 0.00 -- 61.7 56.0
04/22/2019 11:00 573.81 0.00 -- 63.3 54.0
04/22/2019 10:00 573.81 0.00 -- 65.7 54.0
04/22/2019 09:00 573.82 0.00 -- 64.3 62.0
04/22/2019 08:00 573.79 0.00 -- 64.3 57.0
04/22/2019 07:00 573.79 0.00 -- 61.4 61.0
04/22/2019 06:00 573.80 0.00 -- 59.2 65.0
04/22/2019 05:00 573.80 0.00 -- 56.6 64.0
04/22/2019 04:00 573.79 0.00 -- 52.6 61.0
04/22/2019 03:00 573.79 0.00 -- 52.1 58.0
04/22/2019 02:00 573.80 0.00 -- 52.3 54.0
04/22/2019 01:00 573.78 0.00 -- 50.7 53.0
04/22/2019 00:00 573.77 0.00 0.44 50.6 53.0
04/21/2019 23:00 573.81 0.00 -- 50.4 51.0
04/21/2019 22:00 573.77 0.00 -- 50.3 48.0
04/21/2019 21:00 573.79 0.00 -- 52.4 46.0
04/21/2019 20:00 573.79 0.00 -- 54.7 44.0
04/21/2019 19:00 573.80 0.00 -- 55.2 43.0
04/21/2019 18:00 573.80 0.00 -- 56.6 42.0
04/21/2019 17:00 573.78 0.00 -- 57.9 41.0
04/21/2019 16:00 573.78 0.00 -- 59.8 42.0
04/21/2019 15:00 573.79 0.00 -- 61.2 40.0
04/21/2019 14:00 573.79 0.00 -- 63.2 39.0
04/21/2019 13:00 573.79 0.00 -- 65.2 41.0
04/21/2019 12:00 573.77 0.00 -- 66.4 40.0
04/21/2019 11:00 573.79 0.00 -- 65.6 39.0
04/21/2019 10:00 573.78 0.00 -- 64.1 39.0
04/21/2019 09:00 573.76 0.00 -- 62.2 40.0
04/21/2019 08:00 573.78 0.00 -- 62.7 40.0
04/21/2019 07:00 573.77 0.00 -- 61.5 40.0
04/21/2019 06:00 573.80 0.00 -- 61.2 41.0
04/21/2019 05:00 573.79 0.00 -- 58.0 41.0
04/21/2019 04:00 573.79 0.00 -- 57.1 41.0
04/21/2019 03:00 573.77 0.00 -- 56.7 40.0
04/21/2019 02:00 573.75 0.00 -- 56.4 41.0
04/21/2019 01:00 573.79 0.00 -- 56.6 40.0
04/21/2019 00:00 573.82 0.01 0.00 57.0 39.0
04/20/2019 23:00 573.77 0.05 -- 58.4 40.0
04/20/2019 22:00 573.77 0.02 -- 59.3 40.0
04/20/2019 21:00 573.77 0.00 -- 59.8 40.0
04/20/2019 20:00 573.73 0.00 -- 60.2 40.0
04/20/2019 19:00 573.71 0.00 -- 61.1 41.0
04/20/2019 18:00 573.75 0.00 -- 62.0 42.0
04/20/2019 17:00 573.70 0.00 -- 60.8 43.0
04/20/2019 16:00 573.74 0.00 -- 61.5 45.0
04/20/2019 15:00 573.73 0.00 -- 61.3 45.0
04/20/2019 14:00 573.72 0.00 -- 62.0 47.0
04/20/2019 13:00 573.70 0.00 -- 64.3 47.0
04/20/2019 12:00 573.69 0.00 -- 64.5 47.0
04/20/2019 11:00 573.75 0.01 -- 65.2 49.0
04/20/2019 10:00 573.73 0.10 -- 65.1 52.0
04/20/2019 09:00 573.73 0.09 -- 64.4 55.0
04/20/2019 08:00 573.71 0.31 -- 64.2 57.0
04/20/2019 07:00 573.66 0.03 -- 65.4 61.0
04/20/2019 06:00 573.66 0.00 -- 68.2 62.0
04/20/2019 05:00 573.65 0.00 -- 65.9 63.0
04/20/2019 04:00 573.67 0.00 -- 64.3 68.0
04/20/2019 03:00 573.67 0.01 -- 63.5 71.0
04/20/2019 02:00 573.64 0.00 -- 63.4 73.0
04/20/2019 01:00 573.67 0.02 -- 63.4 77.0
04/20/2019 00:00 573.67 0.05 0.65 63.8 82.0
04/19/2019 23:00 573.62 0.14 -- 63.6 85.0
04/19/2019 22:00 573.61 0.14 -- 63.6 89.0
04/19/2019 21:00 573.62 0.03 -- 64.1 97.0
04/19/2019 20:00 573.63 0.00 -- 66.8 100.0
04/19/2019 19:00 573.62 0.00 -- 65.0 100.0
04/19/2019 18:00 573.63 0.00 -- 67.0 100.0
04/19/2019 17:00 573.58 0.00 -- 67.4 100.0
04/19/2019 16:00 573.60 0.00 -- 68.5 100.0
04/19/2019 15:00 573.63 0.00 -- 70.5 100.0
04/19/2019 14:00 573.63 0.00 -- 72.9 100.0
04/19/2019 13:00 573.58 0.00 -- 73.5 100.0
04/19/2019 12:00 -- -- -- 75.7 100.0
04/19/2019 11:00 -- -- -- 74.0 100.0
04/19/2019 10:00 -- -- -- 72.0 100.0
04/19/2019 09:00 -- -- -- 67.9 100.0
04/19/2019 08:00 -- -- -- 67.3 100.0
04/19/2019 07:00 -- -- -- 65.4 100.0
04/19/2019 06:00 -- -- -- 61.6 100.0
04/19/2019 05:00 -- -- -- 59.4 100.0
04/19/2019 04:00 -- -- -- 54.9 100.0
04/19/2019 03:00 -- -- -- 40.0 100.0
04/19/2019 02:00 -- -- -- 39.8 100.0
04/19/2019 01:00 -- -- -- 40.0 100.0
04/19/2019 00:00 -- -- 0.36 39.6 100.0